Time,TemperatureF,DewpointF,PressureIn,WindDirection,WindDirectionDegrees,WindSpeedMPH,WindSpeedGustMPH,Humidity,HourlyPrecipIn,Conditions,Clouds,dailyrainin,SoftwareType,DateUTC
2013-02-18 00:00:00,22.6,17.4,30.12,South,169,0.0,1.0,80,0.00,,---,0.00,VWS V14.00,2013-02-18 05:00:00,
2013-02-18 00:01:00,22.7,17.5,30.12,South,169,0.0,1.0,80,0.00,,---,0.00,VWS V14.00,2013-02-18 05:01:00,
2013-02-18 00:02:00,22.7,17.5,30.12,South,169,0.0,1.0,80,0.00,,---,0.00,VWS V14.00,2013-02-18 05:02:00,
2013-02-18 00:05:00,22.8,17.6,30.12,South,169,0.0,1.0,80,0.00,,---,0.00,VWS V14.00,2013-02-18 05:05:00,
2013-02-18 00:06:00,22.8,17.3,30.13,South,169,0.0,1.0,79,0.00,,---,0.00,VWS V14.00,2013-02-18 05:06:00,
2013-02-18 00:07:00,22.8,17.3,30.13,South,171,0.0,1.0,79,0.00,,---,0.00,VWS V14.00,2013-02-18 05:07:00,
2013-02-18 00:08:00,22.8,17.3,30.13,South,171,0.0,1.0,79,0.00,,---,0.00,VWS V14.00,2013-02-18 05:08:00,
2013-02-18 00:11:00,22.9,17.4,30.12,South,173,0.0,1.0,79,0.00,,---,0.00,VWS V14.00,2013-02-18 05:11:00,
2013-02-18 00:12:00,23.0,17.5,30.13,South,174,1.0,1.0,79,0.00,,---,0.00,VWS V14.00,2013-02-18 05:12:00,
2013-02-18 00:13:00,23.0,17.2,30.12,South,175,0.0,1.0,78,0.00,,---,0.00,VWS V14.00,2013-02-18 05:13:00,
2013-02-18 00:16:00,23.1,17.6,30.13,South,175,0.0,1.0,79,0.00,,---,0.00,VWS V14.00,2013-02-18 05:16:00,
2013-02-18 00:18:00,23.2,17.7,30.13,South,178,0.0,1.0,79,0.00,,---,0.00,VWS V14.00,2013-02-18 05:18:00,
2013-02-18 00:21:00,23.3,17.8,30.12,South,179,0.0,1.0,79,0.00,,---,0.00,VWS V14.00,2013-02-18 05:21:00,
2013-02-18 00:22:00,23.4,17.9,30.12,South,179,0.0,1.0,79,0.00,,---,0.00,VWS V14.00,2013-02-18 05:22:00,
2013-02-18 00:25:00,23.4,17.9,30.12,South,180,0.0,1.0,79,0.00,,---,0.00,VWS V14.00,2013-02-18 05:25:00,
2013-02-18 00:26:00,23.4,17.9,30.12,South,180,0.0,1.0,79,0.00,,---,0.00,VWS V14.00,2013-02-18 05:26:00,
2013-02-18 00:28:00,23.5,18.0,30.12,South,180,0.0,1.0,79,0.00,,---,0.00,VWS V14.00,2013-02-18 05:28:00,
2013-02-18 00:30:00,23.6,18.1,30.12,South,180,0.0,1.0,79,0.00,,---,0.00,VWS V14.00,2013-02-18 05:30:00,
2013-02-18 00:31:00,23.6,18.1,30.12,South,180,0.0,1.0,79,0.00,,---,0.00,VWS V14.00,2013-02-18 05:31:00,
2013-02-18 00:32:00,23.6,18.1,30.12,South,179,0.0,1.0,79,0.00,,---,0.00,VWS V14.00,2013-02-18 05:32:00,
2013-02-18 00:33:00,23.6,18.1,30.12,South,180,0.0,1.0,79,0.00,,---,0.00,VWS V14.00,2013-02-18 05:33:00,
2013-02-18 00:36:00,23.7,18.1,30.12,South,180,0.0,1.0,79,0.00,,---,0.00,VWS V14.00,2013-02-18 05:36:00,
2013-02-18 00:37:00,23.7,18.1,30.12,South,182,1.0,1.0,79,0.00,,---,0.00,VWS V14.00,2013-02-18 05:37:00,
2013-02-18 00:38:00,23.8,18.2,30.12,South,180,0.0,1.0,79,0.00,,---,0.00,VWS V14.00,2013-02-18 05:38:00,
2013-02-18 00:39:00,23.8,18.2,30.12,South,181,0.0,1.0,79,0.00,,---,0.00,VWS V14.00,2013-02-18 05:39:00,
2013-02-18 00:42:00,23.8,18.0,30.12,South,182,0.0,1.0,78,0.00,,---,0.00,VWS V14.00,2013-02-18 05:42:00,
2013-02-18 00:44:00,23.9,18.4,30.12,South,179,0.0,4.0,79,0.00,,---,0.00,VWS V14.00,2013-02-18 05:44:00,
2013-02-18 00:47:00,23.9,18.0,30.12,South,180,0.0,4.0,78,0.00,,---,0.00,VWS V14.00,2013-02-18 05:47:00,
2013-02-18 00:48:00,23.9,18.0,30.12,South,178,1.0,4.0,78,0.00,,---,0.00,VWS V14.00,2013-02-18 05:48:00,
2013-02-18 00:49:00,24.1,18.5,30.12,South,175,0.0,4.0,79,0.00,,---,0.00,VWS V14.00,2013-02-18 05:49:00,
2013-02-18 00:51:00,24.2,18.6,30.12,South,175,0.0,4.0,79,0.00,,---,0.00,VWS V14.00,2013-02-18 05:51:00,
2013-02-18 00:53:00,24.2,18.6,30.12,South,178,1.0,4.0,79,0.00,,---,0.00,VWS V14.00,2013-02-18 05:53:00,
2013-02-18 00:54:00,24.3,18.7,30.12,South,182,0.0,6.0,79,0.00,,---,0.00,VWS V14.00,2013-02-18 05:54:00,
2013-02-18 00:56:00,24.5,18.9,30.11,South,179,1.0,6.0,79,0.00,,---,0.00,VWS V14.00,2013-02-18 05:56:00,
2013-02-18 00:58:00,24.7,19.1,30.11,South,176,0.0,6.0,79,0.00,,---,0.00,VWS V14.00,2013-02-18 05:58:00,
2013-02-18 01:00:00,24.7,19.1,30.11,South,177,0.0,2.0,79,0.00,,---,0.00,VWS V14.00,2013-02-18 06:00:00,
2013-02-18 01:01:00,24.8,19.2,30.11,South,177,0.0,2.0,79,0.00,,---,0.00,VWS V14.00,2013-02-18 06:01:00,
2013-02-18 01:02:00,24.7,19.1,30.11,South,179,1.0,3.0,79,0.00,,---,0.00,VWS V14.00,2013-02-18 06:02:00,
2013-02-18 01:03:00,24.7,18.8,30.11,South,173,0.0,3.0,78,0.00,,---,0.00,VWS V14.00,2013-02-18 06:03:00,
2013-02-18 01:05:00,24.7,18.8,30.11,South,172,0.0,3.0,78,0.00,,---,0.00,VWS V14.00,2013-02-18 06:05:00,
2013-02-18 01:07:00,24.7,18.8,30.12,South,172,0.0,3.0,78,0.00,,---,0.00,VWS V14.00,2013-02-18 06:07:00,
2013-02-18 01:10:00,24.7,18.5,30.12,South,172,0.0,3.0,77,0.00,,---,0.00,VWS V14.00,2013-02-18 06:10:00,
2013-02-18 01:11:00,24.7,18.5,30.12,South,173,0.0,3.0,77,0.00,,---,0.00,VWS V14.00,2013-02-18 06:11:00,
2013-02-18 01:12:00,24.7,18.5,30.12,South,173,0.0,3.0,77,0.00,,---,0.00,VWS V14.00,2013-02-18 06:12:00,
2013-02-18 01:15:00,24.7,18.5,30.12,South,172,0.0,3.0,77,0.00,,---,0.00,VWS V14.00,2013-02-18 06:15:00,
2013-02-18 01:16:00,24.7,18.2,30.12,South,173,0.0,4.0,76,0.00,,---,0.00,VWS V14.00,2013-02-18 06:16:00,
2013-02-18 01:18:00,24.8,18.6,30.12,South,175,0.0,4.0,77,0.00,,---,0.00,VWS V14.00,2013-02-18 06:18:00,
2013-02-18 01:19:00,24.8,18.3,30.12,South,175,0.0,4.0,76,0.00,,---,0.00,VWS V14.00,2013-02-18 06:19:00,
2013-02-18 01:21:00,24.9,18.7,30.12,South,180,0.0,4.0,77,0.00,,---,0.00,VWS V14.00,2013-02-18 06:21:00,
2013-02-18 01:24:00,25.0,18.8,30.12,South,176,2.0,4.0,77,0.00,,---,0.00,VWS V14.00,2013-02-18 06:24:00,
2013-02-18 01:25:00,25.0,18.8,30.12,South,178,0.0,4.0,77,0.00,,---,0.00,VWS V14.00,2013-02-18 06:25:00,
2013-02-18 01:26:00,25.0,18.8,30.12,South,178,0.0,4.0,77,0.00,,---,0.00,VWS V14.00,2013-02-18 06:26:00,
2013-02-18 01:28:00,25.1,18.6,30.12,South,180,0.0,4.0,76,0.00,,---,0.00,VWS V14.00,2013-02-18 06:28:00,
2013-02-18 01:29:00,25.1,18.9,30.12,South,169,1.0,6.0,77,0.00,,---,0.00,VWS V14.00,2013-02-18 06:29:00,
2013-02-18 01:31:00,25.1,18.6,30.12,South,178,1.0,6.0,76,0.00,,---,0.00,VWS V14.00,2013-02-18 06:31:00,
2013-02-18 01:34:00,25.2,18.7,30.12,South,178,0.0,6.0,76,0.00,,---,0.00,VWS V14.00,2013-02-18 06:34:00,
2013-02-18 01:36:00,25.3,18.8,30.12,South,178,1.0,6.0,76,0.00,,---,0.00,VWS V14.00,2013-02-18 06:36:00,
2013-02-18 01:37:00,25.3,19.1,30.12,South,176,1.0,6.0,77,0.00,,---,0.00,VWS V14.00,2013-02-18 06:37:00,
2013-02-18 01:39:00,25.2,18.7,30.11,South,180,2.0,6.0,76,0.00,,---,0.00,VWS V14.00,2013-02-18 06:39:00,
2013-02-18 01:40:00,25.2,18.7,30.11,South,180,2.0,6.0,76,0.00,,---,0.00,VWS V14.00,2013-02-18 06:40:00,
2013-02-18 01:42:00,25.2,18.7,30.11,South,181,0.0,6.0,76,0.00,,---,0.00,VWS V14.00,2013-02-18 06:42:00,
2013-02-18 01:43:00,25.2,18.7,30.11,South,181,4.0,6.0,76,0.00,,---,0.00,VWS V14.00,2013-02-18 06:43:00,
2013-02-18 01:45:00,25.2,18.7,30.11,South,182,5.0,6.0,76,0.00,,---,0.00,VWS V14.00,2013-02-18 06:45:00,
2013-02-18 01:48:00,25.3,19.1,30.11,South,188,6.0,6.0,77,0.00,,---,0.00,VWS V14.00,2013-02-18 06:48:00,
2013-02-18 01:50:00,25.3,19.1,30.12,South,181,0.0,9.0,77,0.00,,---,0.00,VWS V14.00,2013-02-18 06:50:00,
2013-02-18 01:51:00,25.3,19.1,30.11,South,180,0.0,9.0,77,0.00,,---,0.00,VWS V14.00,2013-02-18 06:51:00,
2013-02-18 01:54:00,25.2,19.0,30.11,South,178,6.0,9.0,77,0.00,,---,0.00,VWS V14.00,2013-02-18 06:54:00,
2013-02-18 01:55:00,25.2,18.7,30.11,South,184,3.0,9.0,76,0.00,,---,0.00,VWS V14.00,2013-02-18 06:55:00,
2013-02-18 01:57:00,25.2,18.7,30.11,SSE,166,4.0,9.0,76,0.00,,---,0.00,VWS V14.00,2013-02-18 06:57:00,
2013-02-18 01:58:00,25.2,19.0,30.11,South,172,6.0,9.0,77,0.00,,---,0.00,VWS V14.00,2013-02-18 06:58:00,
2013-02-18 02:01:00,25.1,18.3,30.11,South,171,3.0,7.0,75,0.00,,---,0.00,VWS V14.00,2013-02-18 07:01:00,
2013-02-18 02:03:00,25.1,18.3,30.11,South,180,4.0,7.0,75,0.00,,---,0.00,VWS V14.00,2013-02-18 07:03:00,
2013-02-18 02:04:00,25.1,18.6,30.11,South,179,3.0,7.0,76,0.00,,---,0.00,VWS V14.00,2013-02-18 07:04:00,
2013-02-18 02:06:00,25.2,18.7,30.10,SSE,163,0.0,9.0,76,0.00,,---,0.00,VWS V14.00,2013-02-18 07:06:00,
2013-02-18 02:07:00,25.2,18.7,30.10,South,169,2.0,9.0,76,0.00,,---,0.00,VWS V14.00,2013-02-18 07:07:00,
2013-02-18 02:08:00,25.2,19.0,30.10,South,178,7.0,9.0,77,0.00,,---,0.00,VWS V14.00,2013-02-18 07:08:00,
2013-02-18 02:10:00,25.1,18.6,30.10,South,178,4.0,10.0,76,0.00,,---,0.00,VWS V14.00,2013-02-18 07:10:00,
2013-02-18 02:11:00,25.1,18.6,30.10,South,179,5.0,11.0,76,0.00,,---,0.00,VWS V14.00,2013-02-18 07:11:00,
2013-02-18 02:12:00,25.1,18.6,30.10,South,188,6.0,11.0,76,0.00,,---,0.00,VWS V14.00,2013-02-18 07:12:00,
2013-02-18 02:13:00,25.1,18.6,30.10,South,187,2.0,11.0,76,0.00,,---,0.00,VWS V14.00,2013-02-18 07:13:00,
2013-02-18 02:16:00,25.1,18.6,30.10,South,174,0.0,11.0,76,0.00,,---,0.00,VWS V14.00,2013-02-18 07:16:00,
2013-02-18 02:17:00,25.1,18.9,30.10,South,178,6.0,11.0,77,0.00,,---,0.00,VWS V14.00,2013-02-18 07:17:00,
2013-02-18 02:18:00,25.1,18.9,30.10,South,180,4.0,11.0,77,0.00,,---,0.00,VWS V14.00,2013-02-18 07:18:00,
2013-02-18 02:20:00,25.1,18.9,30.10,South,179,1.0,11.0,77,0.00,,---,0.00,VWS V14.00,2013-02-18 07:20:00,
2013-02-18 02:22:00,25.1,18.9,30.09,South,176,1.0,11.0,77,0.00,,---,0.00,VWS V14.00,2013-02-18 07:22:00,
2013-02-18 02:23:00,25.1,18.9,30.10,South,182,6.0,11.0,77,0.00,,---,0.00,VWS V14.00,2013-02-18 07:23:00,
2013-02-18 02:26:00,25.1,18.9,30.09,South,179,2.0,11.0,77,0.00,,---,0.00,VWS V14.00,2013-02-18 07:26:00,
2013-02-18 02:28:00,25.1,19.2,30.09,South,185,6.0,11.0,78,0.00,,---,0.00,VWS V14.00,2013-02-18 07:28:00,
2013-02-18 02:29:00,25.1,19.2,30.09,South,181,2.0,6.0,78,0.00,,---,0.00,VWS V14.00,2013-02-18 07:29:00,
2013-02-18 02:30:00,25.1,19.2,30.09,South,180,2.0,6.0,78,0.00,,---,0.00,VWS V14.00,2013-02-18 07:30:00,
2013-02-18 02:33:00,25.1,19.2,30.09,South,180,3.0,6.0,78,0.00,,---,0.00,VWS V14.00,2013-02-18 07:33:00,
2013-02-18 02:35:00,25.0,19.1,30.09,South,180,0.0,6.0,78,0.00,,---,0.00,VWS V14.00,2013-02-18 07:35:00,
2013-02-18 02:36:00,25.1,19.2,30.09,South,182,4.0,6.0,78,0.00,,---,0.00,VWS V14.00,2013-02-18 07:36:00,
2013-02-18 02:38:00,25.2,19.6,30.09,South,179,1.0,6.0,79,0.00,,---,0.00,VWS V14.00,2013-02-18 07:38:00,
2013-02-18 02:41:00,25.1,19.5,30.09,South,180,3.0,6.0,79,0.00,,---,0.00,VWS V14.00,2013-02-18 07:41:00,
2013-02-18 02:43:00,25.1,19.5,30.09,South,185,5.0,11.0,79,0.00,,---,0.00,VWS V14.00,2013-02-18 07:43:00,
2013-02-18 02:44:00,25.0,19.4,30.09,South,176,7.0,11.0,79,0.00,,---,0.00,VWS V14.00,2013-02-18 07:44:00,
2013-02-18 02:46:00,25.1,19.2,30.09,South,176,4.0,11.0,78,0.00,,---,0.00,VWS V14.00,2013-02-18 07:46:00,
2013-02-18 02:47:00,25.0,19.1,30.09,South,175,0.0,11.0,78,0.00,,---,0.00,VWS V14.00,2013-02-18 07:47:00,
2013-02-18 02:48:00,25.0,19.1,30.09,South,175,4.0,11.0,78,0.00,,---,0.00,VWS V14.00,2013-02-18 07:48:00,
2013-02-18 02:49:00,25.0,19.1,30.09,South,178,3.0,11.0,78,0.00,,---,0.00,VWS V14.00,2013-02-18 07:49:00,
2013-02-18 02:51:00,25.0,19.1,30.09,South,178,0.0,11.0,78,0.00,,---,0.00,VWS V14.00,2013-02-18 07:51:00,
2013-02-18 02:54:00,25.0,19.1,30.09,South,180,5.0,11.0,78,0.00,,---,0.00,VWS V14.00,2013-02-18 07:54:00,
2013-02-18 02:56:00,25.0,19.1,30.09,South,177,3.0,11.0,78,0.00,,---,0.00,VWS V14.00,2013-02-18 07:56:00,
2013-02-18 02:58:00,24.9,19.0,30.09,South,178,5.0,11.0,78,0.00,,---,0.00,VWS V14.00,2013-02-18 07:58:00,
2013-02-18 03:00:00,25.0,19.1,30.08,South,179,3.0,6.0,78,0.00,,---,0.00,VWS V14.00,2013-02-18 08:00:00,
2013-02-18 03:01:00,25.0,19.1,30.08,South,175,2.0,6.0,78,0.00,,---,0.00,VWS V14.00,2013-02-18 08:01:00,
2013-02-18 03:03:00,25.1,19.5,30.09,SSE,157,1.0,8.0,79,0.00,,---,0.00,VWS V14.00,2013-02-18 08:03:00,
2013-02-18 03:04:00,25.2,19.6,30.09,SSE,158,3.0,8.0,79,0.00,,---,0.00,VWS V14.00,2013-02-18 08:04:00,
2013-02-18 03:05:00,25.2,19.6,30.08,South,169,3.0,8.0,79,0.00,,---,0.00,VWS V14.00,2013-02-18 08:05:00,
2013-02-18 03:06:00,25.2,19.6,30.08,South,171,1.0,8.0,79,0.00,,---,0.00,VWS V14.00,2013-02-18 08:06:00,
2013-02-18 03:09:00,25.2,19.6,30.08,South,174,2.0,8.0,79,0.00,,---,0.00,VWS V14.00,2013-02-18 08:09:00,
2013-02-18 03:10:00,25.3,19.4,30.08,South,173,5.0,8.0,78,0.00,,---,0.00,VWS V14.00,2013-02-18 08:10:00,
2013-02-18 03:11:00,25.3,19.7,30.08,South,178,2.0,8.0,79,0.00,,---,0.00,VWS V14.00,2013-02-18 08:11:00,
2013-02-18 03:14:00,25.3,19.7,30.08,South,184,4.0,9.0,79,0.00,,---,0.00,VWS V14.00,2013-02-18 08:14:00,
2013-02-18 03:15:00,25.4,19.8,30.08,South,182,3.0,9.0,79,0.00,,---,0.00,VWS V14.00,2013-02-18 08:15:00,
2013-02-18 03:16:00,25.4,19.8,30.08,South,179,2.0,9.0,79,0.00,,---,0.00,VWS V14.00,2013-02-18 08:16:00,
2013-02-18 03:17:00,25.4,19.5,30.08,South,175,2.0,9.0,78,0.00,,---,0.00,VWS V14.00,2013-02-18 08:17:00,
2013-02-18 03:19:00,25.4,19.8,30.07,South,175,6.0,9.0,79,0.00,,---,0.00,VWS V14.00,2013-02-18 08:19:00,
2013-02-18 03:20:00,25.4,19.8,30.07,South,178,3.0,9.0,79,0.00,,---,0.00,VWS V14.00,2013-02-18 08:20:00,
2013-02-18 03:22:00,25.3,19.1,30.07,South,189,6.0,9.0,77,0.00,,---,0.00,VWS V14.00,2013-02-18 08:22:00,
2013-02-18 03:23:00,25.3,19.1,30.07,South,181,2.0,10.0,77,0.00,,---,0.00,VWS V14.00,2013-02-18 08:23:00,
2013-02-18 03:27:00,25.5,19.6,30.07,South,180,2.0,10.0,78,0.00,,---,0.00,VWS V14.00,2013-02-18 08:27:00,
2013-02-18 03:28:00,25.6,19.7,30.07,South,179,6.0,10.0,78,0.00,,---,0.00,VWS V14.00,2013-02-18 08:28:00,
2013-02-18 03:29:00,25.5,19.3,30.07,South,180,3.0,6.0,77,0.00,,---,0.00,VWS V14.00,2013-02-18 08:29:00,
2013-02-18 03:32:00,25.7,19.8,30.07,South,181,10.0,10.0,78,0.00,,---,0.00,VWS V14.00,2013-02-18 08:32:00,
2013-02-18 03:35:00,25.7,19.5,30.06,South,175,4.0,10.0,77,0.00,,---,0.00,VWS V14.00,2013-02-18 08:35:00,
2013-02-18 03:36:00,25.7,19.5,30.06,South,175,2.0,10.0,77,0.00,,---,0.00,VWS V14.00,2013-02-18 08:36:00,
2013-02-18 03:37:00,25.7,19.5,30.06,South,180,1.0,10.0,77,0.00,,---,0.00,VWS V14.00,2013-02-18 08:37:00,
2013-02-18 03:40:00,25.8,19.6,30.06,South,175,1.0,10.0,77,0.00,,---,0.00,VWS V14.00,2013-02-18 08:40:00,
2013-02-18 03:42:00,25.9,20.0,30.05,South,171,5.0,10.0,78,0.00,,---,0.00,VWS V14.00,2013-02-18 08:42:00,
2013-02-18 03:43:00,25.9,20.0,30.05,SSE,168,10.0,10.0,78,0.00,,---,0.00,VWS V14.00,2013-02-18 08:43:00,
2013-02-18 03:45:00,26.0,19.8,30.05,South,181,1.0,12.0,77,0.00,,---,0.00,VWS V14.00,2013-02-18 08:45:00,
2013-02-18 03:48:00,25.9,19.7,30.05,SSE,155,6.0,12.0,77,0.00,,---,0.00,VWS V14.00,2013-02-18 08:48:00,
2013-02-18 03:49:00,26.0,19.5,30.05,South,186,9.0,12.0,76,0.00,,---,0.00,VWS V14.00,2013-02-18 08:49:00,
2013-02-18 03:50:00,26.0,19.8,30.05,South,180,4.0,12.0,77,0.00,,---,0.00,VWS V14.00,2013-02-18 08:50:00,
2013-02-18 03:51:00,26.1,19.9,30.05,South,169,1.0,12.0,77,0.00,,---,0.00,VWS V14.00,2013-02-18 08:51:00,
2013-02-18 03:53:00,26.1,19.9,30.05,SSE,162,5.0,12.0,77,0.00,,---,0.00,VWS V14.00,2013-02-18 08:53:00,
2013-02-18 03:55:00,26.2,20.0,30.05,SSE,165,4.0,12.0,77,0.00,,---,0.00,VWS V14.00,2013-02-18 08:55:00,
2013-02-18 03:56:00,26.2,20.0,30.05,SSE,159,4.0,12.0,77,0.00,,---,0.00,VWS V14.00,2013-02-18 08:56:00,
2013-02-18 03:57:00,26.2,20.0,30.05,SSE,163,3.0,12.0,77,0.00,,---,0.00,VWS V14.00,2013-02-18 08:57:00,
2013-02-18 03:58:00,26.2,20.0,30.05,South,180,3.0,12.0,77,0.00,,---,0.00,VWS V14.00,2013-02-18 08:58:00,
2013-02-18 04:02:00,26.3,20.1,30.04,SSW,202,5.0,10.0,77,0.00,,---,0.00,VWS V14.00,2013-02-18 09:02:00,
2013-02-18 04:03:00,26.5,20.6,30.04,South,175,3.0,11.0,78,0.00,,---,0.00,VWS V14.00,2013-02-18 09:03:00,
2013-02-18 04:05:00,26.6,20.7,30.04,South,176,1.0,11.0,78,0.00,,---,0.00,VWS V14.00,2013-02-18 09:05:00,
2013-02-18 04:07:00,26.6,20.4,30.04,SSE,168,2.0,11.0,77,0.00,,---,0.00,VWS V14.00,2013-02-18 09:07:00,
2013-02-18 04:10:00,26.7,20.5,30.04,SSE,163,2.0,11.0,77,0.00,,---,0.00,VWS V14.00,2013-02-18 09:10:00,
2013-02-18 04:12:00,26.7,20.5,30.04,SSE,168,2.0,11.0,77,0.00,,---,0.00,VWS V14.00,2013-02-18 09:12:00,
2013-02-18 04:14:00,26.7,20.2,30.04,South,171,2.0,11.0,76,0.00,,---,0.00,VWS V14.00,2013-02-18 09:14:00,
2013-02-18 04:16:00,26.6,20.1,30.04,SSE,168,2.0,11.0,76,0.00,,---,0.00,VWS V14.00,2013-02-18 09:16:00,
2013-02-18 04:18:00,26.7,20.2,30.04,South,178,3.0,11.0,76,0.00,,---,0.00,VWS V14.00,2013-02-18 09:18:00,
2013-02-18 04:21:00,26.9,20.4,30.04,South,180,3.0,11.0,76,0.00,,---,0.00,VWS V14.00,2013-02-18 09:21:00,
2013-02-18 04:22:00,26.9,20.4,30.04,South,182,2.0,11.0,76,0.00,,---,0.00,VWS V14.00,2013-02-18 09:22:00,
2013-02-18 04:25:00,26.9,20.0,30.04,SSE,165,3.0,11.0,75,0.00,,---,0.00,VWS V14.00,2013-02-18 09:25:00,
2013-02-18 04:27:00,26.9,20.0,30.04,SSE,168,5.0,11.0,75,0.00,,---,0.00,VWS V14.00,2013-02-18 09:27:00,
2013-02-18 04:28:00,26.9,19.7,30.04,South,179,0.0,11.0,74,0.00,,---,0.00,VWS V14.00,2013-02-18 09:28:00,
2013-02-18 04:30:00,27.0,19.8,30.04,South,174,3.0,3.0,74,0.00,,---,0.00,VWS V14.00,2013-02-18 09:30:00,
2013-02-18 04:31:00,27.0,20.1,30.04,South,169,5.0,6.0,75,0.00,,---,0.00,VWS V14.00,2013-02-18 09:31:00,
2013-02-18 04:32:00,27.1,20.2,30.04,SSE,165,3.0,10.0,75,0.00,,---,0.00,VWS V14.00,2013-02-18 09:32:00,
2013-02-18 04:34:00,27.2,20.6,30.03,South,173,5.0,10.0,76,0.00,,---,0.00,VWS V14.00,2013-02-18 09:34:00,
2013-02-18 04:35:00,27.3,20.8,30.03,South,188,1.0,10.0,76,0.00,,---,0.00,VWS V14.00,2013-02-18 09:35:00,
2013-02-18 04:36:00,27.2,20.3,30.03,South,184,1.0,10.0,75,0.00,,---,0.00,VWS V14.00,2013-02-18 09:36:00,
2013-02-18 04:38:00,27.1,19.9,30.03,SSE,152,4.0,10.0,74,0.00,,---,0.00,VWS V14.00,2013-02-18 09:38:00,
2013-02-18 04:39:00,27.1,19.6,30.03,South,176,1.0,10.0,73,0.00,,---,0.00,VWS V14.00,2013-02-18 09:39:00,
2013-02-18 04:41:00,27.2,20.3,30.03,SSE,161,4.0,10.0,75,0.00,,---,0.00,VWS V14.00,2013-02-18 09:41:00,
2013-02-18 04:42:00,27.2,20.3,30.03,SSE,164,3.0,10.0,75,0.00,,---,0.00,VWS V14.00,2013-02-18 09:42:00,
2013-02-18 04:43:00,27.2,20.3,30.03,SSE,153,4.0,10.0,75,0.00,,---,0.00,VWS V14.00,2013-02-18 09:43:00,
2013-02-18 04:45:00,27.2,20.3,30.03,SSE,159,3.0,10.0,75,0.00,,---,0.00,VWS V14.00,2013-02-18 09:45:00,
2013-02-18 04:46:00,27.2,20.3,30.03,South,183,3.0,10.0,75,0.00,,---,0.00,VWS V14.00,2013-02-18 09:46:00,
2013-02-18 04:48:00,27.2,20.3,30.03,South,180,2.0,10.0,75,0.00,,---,0.00,VWS V14.00,2013-02-18 09:48:00,
2013-02-18 04:50:00,27.2,20.0,30.02,South,176,2.0,10.0,74,0.00,,---,0.00,VWS V14.00,2013-02-18 09:50:00,
2013-02-18 04:51:00,27.2,20.6,30.02,SSE,167,3.0,10.0,76,0.00,,---,0.00,VWS V14.00,2013-02-18 09:51:00,
2013-02-18 04:52:00,27.2,20.6,30.02,South,178,7.0,10.0,76,0.00,,---,0.00,VWS V14.00,2013-02-18 09:52:00,
2013-02-18 04:53:00,27.3,20.8,30.02,South,171,2.0,10.0,76,0.00,,---,0.00,VWS V14.00,2013-02-18 09:53:00,
2013-02-18 04:55:00,27.2,20.3,30.02,South,176,1.0,10.0,75,0.00,,---,0.00,VWS V14.00,2013-02-18 09:55:00,
2013-02-18 04:57:00,27.3,20.4,30.02,South,186,0.0,10.0,75,0.00,,---,0.00,VWS V14.00,2013-02-18 09:57:00,
2013-02-18 04:58:00,27.3,20.8,30.02,South,176,4.0,10.0,76,0.00,,---,0.00,VWS V14.00,2013-02-18 09:58:00,
2013-02-18 05:00:00,27.3,20.8,30.02,SSE,163,4.0,10.0,76,0.00,,---,0.00,VWS V14.00,2013-02-18 10:00:00,
2013-02-18 05:01:00,27.3,20.8,30.01,SSE,161,2.0,10.0,76,0.00,,---,0.00,VWS V14.00,2013-02-18 10:01:00,
2013-02-18 05:03:00,27.3,20.8,30.01,SSW,197,3.0,10.0,76,0.00,,---,0.00,VWS V14.00,2013-02-18 10:03:00,
2013-02-18 05:05:00,27.3,20.8,30.01,South,191,2.0,10.0,76,0.00,,---,0.00,VWS V14.00,2013-02-18 10:05:00,
2013-02-18 05:07:00,27.3,20.8,30.01,South,169,4.0,10.0,76,0.00,,---,0.00,VWS V14.00,2013-02-18 10:07:00,
2013-02-18 05:08:00,27.3,20.8,30.01,South,184,6.0,10.0,76,0.00,,---,0.00,VWS V14.00,2013-02-18 10:08:00,
2013-02-18 05:10:00,27.2,20.6,30.01,South,172,3.0,10.0,76,0.00,,---,0.00,VWS V14.00,2013-02-18 10:10:00,
2013-02-18 05:13:00,27.1,20.2,30.01,South,172,4.0,10.0,75,0.00,,---,0.00,VWS V14.00,2013-02-18 10:13:00,
2013-02-18 05:14:00,27.1,20.2,30.01,South,187,3.0,10.0,75,0.00,,---,0.00,VWS V14.00,2013-02-18 10:14:00,
2013-02-18 05:16:00,27.2,20.3,30.01,South,175,2.0,11.0,75,0.00,,---,0.00,VWS V14.00,2013-02-18 10:16:00,
2013-02-18 05:18:00,27.2,20.6,30.01,South,182,10.0,13.0,76,0.00,,---,0.00,VWS V14.00,2013-02-18 10:18:00,
2013-02-18 05:19:00,27.2,20.6,30.01,South,182,6.0,13.0,76,0.00,,---,0.00,VWS V14.00,2013-02-18 10:19:00,
2013-02-18 05:20:00,27.2,20.6,30.01,SSW,194,7.0,13.0,76,0.00,,---,0.00,VWS V14.00,2013-02-18 10:20:00,
2013-02-18 05:21:00,27.2,20.3,30.00,South,182,5.0,13.0,75,0.00,,---,0.00,VWS V14.00,2013-02-18 10:21:00,
2013-02-18 05:24:00,27.3,21.1,30.00,South,169,4.0,13.0,77,0.00,,---,0.00,VWS V14.00,2013-02-18 10:24:00,
2013-02-18 05:25:00,27.3,21.1,30.00,South,176,6.0,13.0,77,0.00,,---,0.00,VWS V14.00,2013-02-18 10:25:00,
2013-02-18 05:26:00,27.3,21.1,30.00,SSE,158,3.0,13.0,77,0.00,,---,0.00,VWS V14.00,2013-02-18 10:26:00,
2013-02-18 05:27:00,27.4,21.1,30.00,SSE,167,3.0,13.0,77,0.00,,---,0.00,VWS V14.00,2013-02-18 10:27:00,
2013-02-18 05:29:00,27.3,20.8,30.00,South,179,2.0,5.0,76,0.00,,---,0.00,VWS V14.00,2013-02-18 10:29:00,
2013-02-18 05:31:00,27.3,20.8,30.00,South,172,3.0,5.0,76,0.00,,---,0.00,VWS V14.00,2013-02-18 10:31:00,
2013-02-18 05:32:00,27.3,20.8,30.00,South,173,4.0,5.0,76,0.00,,---,0.00,VWS V14.00,2013-02-18 10:32:00,
2013-02-18 05:33:00,27.3,20.8,30.00,SSE,168,2.0,5.0,76,0.00,,---,0.00,VWS V14.00,2013-02-18 10:33:00,
2013-02-18 05:34:00,27.4,21.1,30.00,South,180,4.0,9.0,77,0.00,,---,0.00,VWS V14.00,2013-02-18 10:34:00,
2013-02-18 05:36:00,27.3,20.4,30.00,SSE,163,3.0,9.0,75,0.00,,---,0.00,VWS V14.00,2013-02-18 10:36:00,
2013-02-18 05:38:00,27.2,20.3,30.00,South,173,7.0,9.0,75,0.00,,---,0.00,VWS V14.00,2013-02-18 10:38:00,
2013-02-18 05:40:00,27.3,20.8,30.00,South,190,9.0,10.0,76,0.00,,---,0.00,VWS V14.00,2013-02-18 10:40:00,
2013-02-18 05:42:00,27.3,20.4,29.99,South,175,4.0,11.0,75,0.00,,---,0.00,VWS V14.00,2013-02-18 10:42:00,
2013-02-18 05:45:00,27.4,20.5,29.99,SSE,155,5.0,11.0,75,0.00,,---,0.00,VWS V14.00,2013-02-18 10:45:00,
2013-02-18 05:49:00,27.4,20.5,29.99,South,186,11.0,11.0,75,0.00,,---,0.00,VWS V14.00,2013-02-18 10:49:00,
2013-02-18 05:51:00,27.5,20.9,29.99,South,175,11.0,14.0,76,0.00,,---,0.00,VWS V14.00,2013-02-18 10:51:00,
2013-02-18 05:54:00,27.6,21.0,29.98,South,189,10.0,14.0,76,0.00,,---,0.00,VWS V14.00,2013-02-18 10:54:00,
2013-02-18 05:56:00,27.6,21.0,29.98,South,171,2.0,14.0,76,0.00,,---,0.00,VWS V14.00,2013-02-18 10:56:00,
2013-02-18 05:58:00,27.5,20.9,29.98,South,177,1.0,14.0,76,0.00,,---,0.00,VWS V14.00,2013-02-18 10:58:00,
2013-02-18 05:59:00,27.6,21.0,29.98,South,174,3.0,4.0,76,0.00,,---,0.00,VWS V14.00,2013-02-18 10:59:00,
2013-02-18 06:03:00,27.6,21.4,29.98,South,170,4.0,9.0,77,0.00,,---,0.00,VWS V14.00,2013-02-18 11:03:00,
2013-02-18 06:04:00,27.5,20.9,29.98,SSE,149,6.0,9.0,76,0.00,,---,0.00,VWS V14.00,2013-02-18 11:04:00,
2013-02-18 06:09:00,27.4,20.8,29.98,South,181,1.0,10.0,76,0.00,,---,0.00,VWS V14.00,2013-02-18 11:09:00,
2013-02-18 06:10:00,27.4,20.8,29.98,South,184,2.0,10.0,76,0.00,,---,0.00,VWS V14.00,2013-02-18 11:10:00,
2013-02-18 06:15:00,27.5,20.9,29.97,South,190,6.0,14.0,76,0.00,,---,0.00,VWS V14.00,2013-02-18 11:15:00,
2013-02-18 06:16:00,27.5,20.9,29.97,SSW,204,7.0,14.0,76,0.00,,---,0.00,VWS V14.00,2013-02-18 11:16:00,
2013-02-18 06:21:00,27.6,21.4,29.97,South,176,6.0,14.0,77,0.00,,---,0.00,VWS V14.00,2013-02-18 11:21:00,
2013-02-18 06:22:00,27.6,21.0,29.97,South,188,13.0,14.0,76,0.00,,---,0.00,VWS V14.00,2013-02-18 11:22:00,
2013-02-18 06:23:00,27.6,21.0,29.97,South,186,10.0,14.0,76,0.00,,---,0.00,VWS V14.00,2013-02-18 11:23:00,
2013-02-18 06:27:00,27.6,21.0,29.96,SSE,155,5.0,14.0,76,0.00,,---,0.00,VWS V14.00,2013-02-18 11:27:00,
2013-02-18 06:29:00,27.7,21.4,29.96,South,184,8.0,12.0,77,0.00,,---,0.00,VWS V14.00,2013-02-18 11:29:00,
2013-02-18 06:32:00,27.6,21.0,29.96,SSE,166,9.0,12.0,76,0.00,,---,0.00,VWS V14.00,2013-02-18 11:32:00,
2013-02-18 06:34:00,27.6,21.0,29.95,South,179,6.0,12.0,76,0.00,,---,0.00,VWS V14.00,2013-02-18 11:34:00,
2013-02-18 06:38:00,27.8,21.5,29.95,South,173,11.0,16.0,77,0.00,,---,0.00,VWS V14.00,2013-02-18 11:38:00,
2013-02-18 06:40:00,27.8,21.2,29.95,South,175,5.0,16.0,76,0.00,,---,0.00,VWS V14.00,2013-02-18 11:40:00,
2013-02-18 06:43:00,27.8,21.2,29.95,South,178,7.0,16.0,76,0.00,,---,0.00,VWS V14.00,2013-02-18 11:43:00,
2013-02-18 06:46:00,27.9,21.6,29.95,SSW,202,7.0,16.0,77,0.00,,---,0.00,VWS V14.00,2013-02-18 11:46:00,
2013-02-18 06:47:00,27.9,21.6,29.95,South,180,6.0,16.0,77,0.00,,---,0.00,VWS V14.00,2013-02-18 11:47:00,
2013-02-18 06:48:00,27.9,21.6,29.95,South,169,3.0,16.0,77,0.00,,---,0.00,VWS V14.00,2013-02-18 11:48:00,
2013-02-18 06:53:00,27.9,21.3,29.95,South,184,12.0,16.0,76,0.00,,---,0.00,VWS V14.00,2013-02-18 11:53:00,
2013-02-18 06:54:00,27.8,20.9,29.95,South,176,2.0,16.0,75,0.00,,---,0.00,VWS V14.00,2013-02-18 11:54:00,
2013-02-18 06:56:00,27.8,21.2,29.94,South,180,5.0,18.0,76,0.00,,---,0.00,VWS V14.00,2013-02-18 11:56:00,
2013-02-18 06:59:00,27.9,21.6,29.95,SSE,161,9.0,13.0,77,0.00,,---,0.00,VWS V14.00,2013-02-18 11:59:00,
2013-02-18 07:00:00,27.9,21.6,29.95,South,175,2.0,13.0,77,0.00,,---,0.00,VWS V14.00,2013-02-18 12:00:00,
2013-02-18 07:01:00,28.0,21.7,29.94,SSE,161,3.0,13.0,77,0.00,,---,0.00,VWS V14.00,2013-02-18 12:01:00,
2013-02-18 07:04:00,28.1,21.8,29.95,SSE,161,3.0,13.0,77,0.00,,---,0.00,VWS V14.00,2013-02-18 12:04:00,
2013-02-18 07:06:00,28.0,21.4,29.95,South,172,4.0,13.0,76,0.00,,---,0.00,VWS V14.00,2013-02-18 12:06:00,
2013-02-18 07:09:00,27.9,21.3,29.94,South,183,6.0,13.0,76,0.00,,---,0.00,VWS V14.00,2013-02-18 12:09:00,
2013-02-18 07:11:00,27.9,21.3,29.94,SSE,167,6.0,13.0,76,0.00,,---,0.00,VWS V14.00,2013-02-18 12:11:00,
2013-02-18 07:16:00,27.9,21.3,29.93,South,172,4.0,13.0,76,0.00,,---,0.00,VWS V14.00,2013-02-18 12:16:00,
2013-02-18 07:17:00,27.9,21.6,29.93,SSE,148,11.0,13.0,77,0.00,,---,0.00,VWS V14.00,2013-02-18 12:17:00,
2013-02-18 07:19:00,28.0,21.7,29.93,SSE,159,3.0,13.0,77,0.00,,---,0.00,VWS V14.00,2013-02-18 12:19:00,
2013-02-18 07:23:00,27.9,21.3,29.93,South,170,7.0,15.0,76,0.00,,---,0.00,VWS V14.00,2013-02-18 12:23:00,
2013-02-18 07:24:00,27.9,21.3,29.93,South,186,4.0,15.0,76,0.00,,---,0.00,VWS V14.00,2013-02-18 12:24:00,
2013-02-18 07:28:00,28.0,21.7,29.93,South,189,3.0,15.0,77,0.00,,---,0.00,VWS V14.00,2013-02-18 12:28:00,
2013-02-18 07:29:00,28.1,21.8,29.93,SSE,160,2.0,6.0,77,0.00,,---,0.00,VWS V14.00,2013-02-18 12:29:00,
2013-02-18 07:30:00,28.1,21.8,29.93,South,172,4.0,6.0,77,0.00,,---,0.00,VWS V14.00,2013-02-18 12:30:00,
2013-02-18 07:35:00,28.0,21.4,29.93,South,178,4.0,11.0,76,0.00,,---,0.00,VWS V14.00,2013-02-18 12:35:00,
2013-02-18 07:36:00,28.0,21.7,29.93,South,188,7.0,11.0,77,0.00,,---,0.00,VWS V14.00,2013-02-18 12:36:00,
2013-02-18 07:37:00,28.0,21.7,29.93,SSE,161,4.0,11.0,77,0.00,,---,0.00,VWS V14.00,2013-02-18 12:37:00,
2013-02-18 07:40:00,28.1,21.8,29.93,SSE,161,3.0,12.0,77,0.00,,---,0.00,VWS V14.00,2013-02-18 12:40:00,
2013-02-18 07:42:00,28.0,21.4,29.93,South,188,5.0,15.0,76,0.00,,---,0.00,VWS V14.00,2013-02-18 12:42:00,
2013-02-18 07:43:00,28.0,21.4,29.93,SSE,158,5.0,15.0,76,0.00,,---,0.00,VWS V14.00,2013-02-18 12:43:00,
2013-02-18 07:46:00,28.1,21.5,29.92,South,184,5.0,15.0,76,0.00,,---,0.00,VWS V14.00,2013-02-18 12:46:00,
2013-02-18 07:48:00,28.2,21.9,29.92,South,178,5.0,15.0,77,0.00,,---,0.00,VWS V14.00,2013-02-18 12:48:00,
2013-02-18 07:52:00,28.3,22.0,29.92,South,170,4.0,15.0,77,0.00,,---,0.00,VWS V14.00,2013-02-18 12:52:00,
2013-02-18 07:54:00,28.3,22.0,29.93,SSE,157,5.0,15.0,77,0.00,,---,0.00,VWS V14.00,2013-02-18 12:54:00,
2013-02-18 07:56:00,28.3,21.7,29.93,SSE,159,7.0,15.0,76,0.00,,---,0.00,VWS V14.00,2013-02-18 12:56:00,
2013-02-18 07:58:00,28.3,21.7,29.92,SSE,165,4.0,15.0,76,0.00,,---,0.00,VWS V14.00,2013-02-18 12:58:00,
2013-02-18 08:01:00,28.3,21.7,29.92,SSE,167,3.0,12.0,76,0.00,,---,0.00,VWS V14.00,2013-02-18 13:01:00,
2013-02-18 08:03:00,28.3,21.7,29.92,SSE,155,7.0,12.0,76,0.00,,---,0.00,VWS V14.00,2013-02-18 13:03:00,
2013-02-18 08:06:00,28.4,21.5,29.92,South,169,12.0,16.0,75,0.00,,---,0.00,VWS V14.00,2013-02-18 13:06:00,
2013-02-18 08:07:00,28.4,21.5,29.92,South,178,2.0,16.0,75,0.00,,---,0.00,VWS V14.00,2013-02-18 13:07:00,
2013-02-18 08:08:00,28.4,21.5,29.92,South,172,13.0,16.0,75,0.00,,---,0.00,VWS V14.00,2013-02-18 13:08:00,
2013-02-18 08:11:00,28.5,21.6,29.92,South,179,3.0,18.0,75,0.00,,---,0.00,VWS V14.00,2013-02-18 13:11:00,
2013-02-18 08:13:00,28.6,21.7,29.92,SSE,157,5.0,18.0,75,0.00,,---,0.00,VWS V14.00,2013-02-18 13:13:00,
2013-02-18 08:14:00,28.5,21.6,29.92,South,172,5.0,18.0,75,0.00,,---,0.00,VWS V14.00,2013-02-18 13:14:00,
2013-02-18 08:17:00,28.6,21.7,29.92,South,170,10.0,18.0,75,0.00,,---,0.00,VWS V14.00,2013-02-18 13:17:00,
2013-02-18 08:18:00,28.7,22.1,29.92,South,169,6.0,18.0,76,0.00,,---,0.00,VWS V14.00,2013-02-18 13:18:00,
2013-02-18 08:20:00,28.6,21.7,29.92,SSE,168,5.0,18.0,75,0.00,,---,0.00,VWS V14.00,2013-02-18 13:20:00,
2013-02-18 08:23:00,28.7,21.8,29.92,South,184,6.0,18.0,75,0.00,,---,0.00,VWS V14.00,2013-02-18 13:23:00,
2013-02-18 08:26:00,28.8,22.2,29.92,SSE,159,6.0,18.0,76,0.00,,---,0.00,VWS V14.00,2013-02-18 13:26:00,
2013-02-18 08:28:00,29.1,22.5,29.91,SSE,165,5.0,18.0,76,0.00,,---,0.00,VWS V14.00,2013-02-18 13:28:00,
2013-02-18 08:31:00,29.3,22.4,29.91,SSE,161,5.0,14.0,75,0.00,,---,0.00,VWS V14.00,2013-02-18 13:31:00,
2013-02-18 08:32:00,29.3,22.4,29.91,South,187,5.0,14.0,75,0.00,,---,0.00,VWS V14.00,2013-02-18 13:32:00,
2013-02-18 08:33:00,29.3,22.4,29.91,SE,136,4.0,14.0,75,0.00,,---,0.00,VWS V14.00,2013-02-18 13:33:00,
2013-02-18 08:36:00,29.6,23.0,29.91,South,187,4.0,14.0,76,0.00,,---,0.00,VWS V14.00,2013-02-18 13:36:00,
2013-02-18 08:37:00,29.6,23.0,29.91,South,169,4.0,14.0,76,0.00,,---,0.00,VWS V14.00,2013-02-18 13:37:00,
2013-02-18 08:38:00,29.6,23.0,29.91,South,179,2.0,14.0,76,0.00,,---,0.00,VWS V14.00,2013-02-18 13:38:00,
2013-02-18 08:42:00,29.7,22.8,29.91,South,172,6.0,16.0,75,0.00,,---,0.00,VWS V14.00,2013-02-18 13:42:00,
2013-02-18 08:43:00,29.8,22.9,29.91,South,187,9.0,16.0,75,0.00,,---,0.00,VWS V14.00,2013-02-18 13:43:00,
2013-02-18 08:47:00,30.1,22.8,29.90,South,185,5.0,16.0,74,0.00,,---,0.00,VWS V14.00,2013-02-18 13:47:00,
2013-02-18 08:48:00,30.2,22.9,29.91,South,183,6.0,16.0,74,0.00,,---,0.00,VWS V14.00,2013-02-18 13:48:00,
2013-02-18 08:50:00,30.2,22.3,29.91,South,186,3.0,18.0,72,0.00,,---,0.00,VWS V14.00,2013-02-18 13:50:00,
2013-02-18 08:52:00,30.3,22.4,29.90,SSW,202,7.0,18.0,72,0.00,,---,0.00,VWS V14.00,2013-02-18 13:52:00,
2013-02-18 08:53:00,30.5,22.9,29.90,South,180,6.0,18.0,73,0.00,,---,0.00,VWS V14.00,2013-02-18 13:53:00,
2013-02-18 08:56:00,30.8,23.5,29.90,SSW,192,10.0,18.0,74,0.00,,---,0.00,VWS V14.00,2013-02-18 13:56:00,
2013-02-18 08:58:00,30.7,23.1,29.90,SSE,157,6.0,18.0,73,0.00,,---,0.00,VWS V14.00,2013-02-18 13:58:00,
2013-02-18 08:59:00,30.8,23.2,29.90,South,175,7.0,7.0,73,0.00,,---,0.00,VWS V14.00,2013-02-18 13:59:00,
2013-02-18 09:01:00,30.8,23.2,29.90,SSE,159,5.0,13.0,73,0.00,,---,0.00,VWS V14.00,2013-02-18 14:01:00,
2013-02-18 09:03:00,30.8,22.9,29.90,South,181,10.0,15.0,72,0.00,,---,0.00,VWS V14.00,2013-02-18 14:03:00,
2013-02-18 09:04:00,30.8,22.5,29.90,South,180,12.0,15.0,71,0.00,,---,0.00,VWS V14.00,2013-02-18 14:04:00,
2013-02-18 09:07:00,30.8,22.9,29.90,South,170,11.0,18.0,72,0.00,,---,0.00,VWS V14.00,2013-02-18 14:07:00,
2013-02-18 09:08:00,31.0,23.0,29.90,South,172,7.0,18.0,72,0.00,,---,0.00,VWS V14.00,2013-02-18 14:08:00,
2013-02-18 09:10:00,31.1,23.1,29.90,South,182,6.0,18.0,72,0.00,,---,0.00,VWS V14.00,2013-02-18 14:10:00,
2013-02-18 09:13:00,31.0,22.0,29.90,South,184,7.0,18.0,69,0.00,,---,0.00,VWS V14.00,2013-02-18 14:13:00,
2013-02-18 09:15:00,31.2,22.6,29.89,South,188,3.0,18.0,70,0.00,,---,0.00,VWS V14.00,2013-02-18 14:15:00,
2013-02-18 09:17:00,31.4,23.1,29.89,South,184,5.0,18.0,71,0.00,,---,0.00,VWS V14.00,2013-02-18 14:17:00,
2013-02-18 09:18:00,31.4,22.8,29.89,SSE,160,5.0,18.0,70,0.00,,---,0.00,VWS V14.00,2013-02-18 14:18:00,
2013-02-18 09:21:00,31.5,22.9,29.89,SSE,163,4.0,18.0,70,0.00,,---,0.00,VWS V14.00,2013-02-18 14:21:00,
2013-02-18 09:23:00,31.7,23.4,29.89,South,186,11.0,18.0,71,0.00,,---,0.00,VWS V14.00,2013-02-18 14:23:00,
2013-02-18 09:24:00,31.7,23.0,29.89,South,176,6.0,18.0,70,0.00,,---,0.00,VWS V14.00,2013-02-18 14:24:00,
2013-02-18 09:27:00,31.9,23.6,29.89,South,187,10.0,21.0,71,0.00,,---,0.00,VWS V14.00,2013-02-18 14:27:00,
2013-02-18 09:29:00,31.8,22.5,29.89,South,176,14.0,14.0,68,0.00,,---,0.00,VWS V14.00,2013-02-18 14:29:00,
2013-02-18 09:31:00,31.7,22.7,29.89,South,183,13.0,21.0,69,0.00,,---,0.00,VWS V14.00,2013-02-18 14:31:00,
2013-02-18 09:35:00,31.9,23.6,29.88,South,179,11.0,21.0,71,0.00,,---,0.00,VWS V14.00,2013-02-18 14:35:00,
2013-02-18 09:36:00,32.0,23.0,29.88,South,174,9.0,21.0,69,0.00,,---,0.00,VWS V14.00,2013-02-18 14:36:00,
2013-02-18 09:40:00,32.2,23.2,29.89,SSW,200,11.0,21.0,69,0.00,,---,0.00,VWS V14.00,2013-02-18 14:40:00,
2013-02-18 09:41:00,32.3,23.6,29.88,South,188,9.0,21.0,70,0.00,,---,0.00,VWS V14.00,2013-02-18 14:41:00,
2013-02-18 09:42:00,32.4,23.7,29.88,SSE,163,12.0,21.0,70,0.00,,---,0.00,VWS V14.00,2013-02-18 14:42:00,
2013-02-18 09:45:00,32.6,23.9,29.88,South,178,2.0,21.0,70,0.00,,---,0.00,VWS V14.00,2013-02-18 14:45:00,
2013-02-18 09:46:00,32.7,24.0,29.88,SSW,198,3.0,21.0,70,0.00,,---,0.00,VWS V14.00,2013-02-18 14:46:00,
2013-02-18 09:48:00,32.8,23.8,29.88,South,182,10.0,21.0,69,0.00,,---,0.00,VWS V14.00,2013-02-18 14:48:00,
2013-02-18 09:51:00,33.0,24.0,29.88,South,171,4.0,21.0,69,0.00,,---,0.00,VWS V14.00,2013-02-18 14:51:00,
2013-02-18 09:53:00,33.0,24.3,29.88,South,179,10.0,21.0,70,0.00,,---,0.00,VWS V14.00,2013-02-18 14:53:00,
2013-02-18 09:54:00,33.0,23.6,29.88,SSE,165,4.0,21.0,68,0.00,,---,0.00,VWS V14.00,2013-02-18 14:54:00,
2013-02-18 09:57:00,32.9,23.5,29.88,SSE,156,5.0,21.0,68,0.00,,---,0.00,VWS V14.00,2013-02-18 14:57:00,
2013-02-18 09:59:00,33.2,24.8,29.87,SSE,164,12.0,13.0,71,0.00,,---,0.00,VWS V14.00,2013-02-18 14:59:00,
2013-02-18 10:01:00,33.3,24.6,29.87,SSW,208,5.0,15.0,70,0.00,,---,0.00,VWS V14.00,2013-02-18 15:01:00,
2013-02-18 10:03:00,33.4,24.7,29.87,South,173,9.0,15.0,70,0.00,,---,0.00,VWS V14.00,2013-02-18 15:03:00,
2013-02-18 10:06:00,33.3,23.9,29.87,SE,139,7.0,15.0,68,0.00,,---,0.00,VWS V14.00,2013-02-18 15:06:00,
2013-02-18 10:07:00,33.5,24.1,29.87,South,190,5.0,15.0,68,0.00,,---,0.00,VWS V14.00,2013-02-18 15:07:00,
2013-02-18 10:08:00,33.7,25.0,29.87,South,187,5.0,15.0,70,0.00,,---,0.00,VWS V14.00,2013-02-18 15:08:00,
2013-02-18 10:13:00,33.9,24.8,29.87,South,169,6.0,15.0,69,0.00,,---,0.00,VWS V14.00,2013-02-18 15:13:00,
2013-02-18 10:14:00,34.1,25.0,29.87,SSE,149,9.0,15.0,69,0.00,,---,0.00,VWS V14.00,2013-02-18 15:14:00,
2013-02-18 10:18:00,34.3,25.2,29.86,South,182,6.0,15.0,69,0.00,,---,0.00,VWS V14.00,2013-02-18 15:18:00,
2013-02-18 10:19:00,34.4,25.6,29.87,South,177,9.0,15.0,70,0.00,,---,0.00,VWS V14.00,2013-02-18 15:19:00,
2013-02-18 10:21:00,34.4,25.0,29.86,South,190,15.0,15.0,68,0.00,,---,0.00,VWS V14.00,2013-02-18 15:21:00,
2013-02-18 10:23:00,34.4,25.0,29.86,SSE,149,7.0,15.0,68,0.00,,---,0.00,VWS V14.00,2013-02-18 15:23:00,
2013-02-18 10:25:00,34.4,25.0,29.86,South,187,6.0,15.0,68,0.00,,---,0.00,VWS V14.00,2013-02-18 15:25:00,
2013-02-18 10:27:00,34.7,25.6,29.86,South,171,5.0,15.0,69,0.00,,---,0.00,VWS V14.00,2013-02-18 15:27:00,
2013-02-18 10:29:00,34.9,25.8,29.86,SSW,194,3.0,12.0,69,0.00,,---,0.00,VWS V14.00,2013-02-18 15:29:00,
2013-02-18 10:31:00,35.0,25.2,29.85,South,184,2.0,15.0,67,0.00,,---,0.00,VWS V14.00,2013-02-18 15:31:00,
2013-02-18 10:32:00,35.1,25.6,29.85,South,188,2.0,15.0,68,0.00,,---,0.00,VWS V14.00,2013-02-18 15:32:00,
2013-02-18 10:36:00,35.2,25.0,29.85,South,173,4.0,15.0,66,0.00,,---,0.00,VWS V14.00,2013-02-18 15:36:00,
2013-02-18 10:38:00,35.4,25.9,29.85,South,175,10.0,15.0,68,0.00,,---,0.00,VWS V14.00,2013-02-18 15:38:00,
2013-02-18 10:41:00,35.7,26.2,29.85,South,171,6.0,15.0,68,0.00,,---,0.00,VWS V14.00,2013-02-18 15:41:00,
2013-02-18 10:43:00,35.9,26.0,29.85,South,176,9.0,15.0,67,0.00,,---,0.00,VWS V14.00,2013-02-18 15:43:00,
2013-02-18 10:44:00,35.9,26.4,29.85,SSE,160,12.0,15.0,68,0.00,,---,0.00,VWS V14.00,2013-02-18 15:44:00,
2013-02-18 10:47:00,36.0,25.4,29.85,South,182,7.0,15.0,65,0.00,,---,0.00,VWS V14.00,2013-02-18 15:47:00,
2013-02-18 10:48:00,36.3,26.4,29.85,SSW,196,1.0,15.0,67,0.00,,---,0.00,VWS V14.00,2013-02-18 15:48:00,
2013-02-18 10:49:00,36.4,26.1,29.85,SE,132,5.0,15.0,66,0.00,,---,0.00,VWS V14.00,2013-02-18 15:49:00,
2013-02-18 10:54:00,36.8,25.8,29.85,SSE,162,10.0,15.0,64,0.00,,---,0.00,VWS V14.00,2013-02-18 15:54:00,
2013-02-18 10:59:00,37.0,26.3,29.84,SSW,194,6.0,9.0,65,0.00,,---,0.00,VWS V14.00,2013-02-18 15:59:00,
2013-02-18 11:01:00,37.3,27.0,29.84,SSW,192,5.0,11.0,66,0.00,,---,0.00,VWS V14.00,2013-02-18 16:01:00,
2013-02-18 11:04:00,37.5,26.5,29.84,South,182,3.0,15.0,64,0.00,,---,0.00,VWS V14.00,2013-02-18 16:04:00,
2013-02-18 11:06:00,37.6,26.5,29.84,South,188,5.0,15.0,64,0.00,,---,0.00,VWS V14.00,2013-02-18 16:06:00,
2013-02-18 11:07:00,37.6,26.2,29.84,South,184,4.0,15.0,63,0.00,,---,0.00,VWS V14.00,2013-02-18 16:07:00,
2013-02-18 11:10:00,38.0,27.3,29.84,South,177,4.0,15.0,65,0.00,,---,0.00,VWS V14.00,2013-02-18 16:10:00,
2013-02-18 11:12:00,38.4,27.7,29.84,SSE,163,10.0,15.0,65,0.00,,---,0.00,VWS V14.00,2013-02-18 16:12:00,
2013-02-18 11:15:00,38.6,28.2,29.84,SSW,201,2.0,15.0,66,0.00,,---,0.00,VWS V14.00,2013-02-18 16:15:00,
2013-02-18 11:18:00,38.8,27.7,29.84,South,169,11.0,17.0,64,0.00,,---,0.00,VWS V14.00,2013-02-18 16:18:00,
2013-02-18 11:20:00,38.9,28.5,29.84,South,186,7.0,17.0,66,0.00,,---,0.00,VWS V14.00,2013-02-18 16:20:00,
2013-02-18 11:23:00,39.2,28.4,29.83,SW,216,7.0,17.0,65,0.00,,---,0.00,VWS V14.00,2013-02-18 16:23:00,
2013-02-18 11:26:00,39.4,29.0,29.83,SSE,164,6.0,17.0,66,0.00,,---,0.00,VWS V14.00,2013-02-18 16:26:00,
2013-02-18 11:28:00,39.7,28.9,29.83,SSW,201,2.0,17.0,65,0.00,,---,0.00,VWS V14.00,2013-02-18 16:28:00,
2013-02-18 11:29:00,39.6,28.8,29.83,SSE,160,6.0,9.0,65,0.00,,---,0.00,VWS V14.00,2013-02-18 16:29:00,
2013-02-18 11:32:00,39.6,28.1,29.82,South,171,7.0,13.0,63,0.01,,---,0.01,VWS V14.00,2013-02-18 16:32:00,
2013-02-18 11:34:00,39.7,28.9,29.82,South,169,2.0,14.0,65,0.01,,---,0.01,VWS V14.00,2013-02-18 16:34:00,
2013-02-18 11:35:00,39.8,29.0,29.82,SSW,195,7.0,14.0,65,0.01,,---,0.01,VWS V14.00,2013-02-18 16:35:00,
2013-02-18 11:39:00,40.0,29.2,29.82,SW,220,9.0,16.0,65,0.01,,---,0.01,VWS V14.00,2013-02-18 16:39:00,
2013-02-18 11:41:00,39.9,28.3,29.82,South,182,2.0,16.0,63,0.01,,---,0.01,VWS V14.00,2013-02-18 16:41:00,
2013-02-18 11:44:00,40.1,28.9,29.82,South,182,9.0,17.0,64,0.01,,---,0.01,VWS V14.00,2013-02-18 16:44:00,
2013-02-18 11:47:00,40.2,29.4,29.82,SSE,165,10.0,17.0,65,0.01,,---,0.01,VWS V14.00,2013-02-18 16:47:00,
2013-02-18 11:50:00,40.3,29.5,29.82,South,182,6.0,17.0,65,0.01,,---,0.01,VWS V14.00,2013-02-18 16:50:00,
2013-02-18 11:52:00,40.5,29.7,29.81,SSW,202,6.0,17.0,65,0.01,,---,0.01,VWS V14.00,2013-02-18 16:52:00,
2013-02-18 11:53:00,40.5,29.3,29.81,SSE,165,6.0,17.0,64,0.01,,---,0.01,VWS V14.00,2013-02-18 16:53:00,
2013-02-18 11:55:00,40.7,29.5,29.81,South,178,1.0,17.0,64,0.01,,---,0.01,VWS V14.00,2013-02-18 16:55:00,
2013-02-18 11:58:00,40.8,30.0,29.81,SSE,159,11.0,17.0,65,0.01,,---,0.01,VWS V14.00,2013-02-18 16:58:00,
2013-02-18 12:01:00,40.9,29.7,29.81,SSE,157,10.0,15.0,64,0.01,,---,0.01,VWS V14.00,2013-02-18 17:01:00,
2013-02-18 12:03:00,41.0,29.8,29.81,SSW,192,3.0,16.0,64,0.01,,---,0.01,VWS V14.00,2013-02-18 17:03:00,
2013-02-18 12:09:00,41.2,30.0,29.81,SE,138,7.0,16.0,64,0.01,,---,0.01,VWS V14.00,2013-02-18 17:09:00,
2013-02-18 12:13:00,41.5,29.9,29.80,SSW,192,9.0,18.0,63,0.01,,---,0.01,VWS V14.00,2013-02-18 17:13:00,
2013-02-18 12:14:00,41.5,29.9,29.80,SSW,202,5.0,18.0,63,0.01,,---,0.01,VWS V14.00,2013-02-18 17:14:00,
2013-02-18 12:16:00,41.7,30.4,29.80,South,175,14.0,18.0,64,0.01,,---,0.01,VWS V14.00,2013-02-18 17:16:00,
2013-02-18 12:19:00,41.8,30.5,29.80,South,190,3.0,18.0,64,0.01,,---,0.01,VWS V14.00,2013-02-18 17:19:00,
2013-02-18 12:24:00,42.0,30.3,29.80,South,178,7.0,18.0,63,0.01,,---,0.01,VWS V14.00,2013-02-18 17:24:00,
2013-02-18 12:26:00,42.2,30.9,29.80,South,176,1.0,18.0,64,0.01,,---,0.01,VWS V14.00,2013-02-18 17:26:00,
2013-02-18 12:29:00,42.4,31.9,29.80,South,175,7.0,9.0,66,0.01,,---,0.01,VWS V14.00,2013-02-18 17:29:00,
2013-02-18 12:33:00,42.6,31.3,29.79,South,186,10.0,16.0,64,0.01,,---,0.01,VWS V14.00,2013-02-18 17:33:00,
2013-02-18 12:34:00,42.5,31.2,29.79,South,175,9.0,16.0,64,0.01,,---,0.01,VWS V14.00,2013-02-18 17:34:00,
2013-02-18 12:35:00,42.5,31.2,29.79,South,190,6.0,16.0,64,0.01,,---,0.01,VWS V14.00,2013-02-18 17:35:00,
2013-02-18 12:40:00,43.0,32.1,29.78,South,173,9.0,16.0,65,0.01,,---,0.01,VWS V14.00,2013-02-18 17:40:00,
2013-02-18 12:41:00,43.1,32.2,29.78,South,186,12.0,16.0,65,0.01,,---,0.01,VWS V14.00,2013-02-18 17:41:00,
2013-02-18 12:42:00,43.2,32.2,29.78,South,169,8.0,16.0,65,0.01,,---,0.01,VWS V14.00,2013-02-18 17:42:00,
2013-02-18 12:45:00,43.4,32.0,29.78,SSE,167,2.0,16.0,64,0.02,,---,0.02,VWS V14.00,2013-02-18 17:45:00,
2013-02-18 12:46:00,43.5,32.5,29.78,South,171,2.0,16.0,65,0.02,,---,0.02,VWS V14.00,2013-02-18 17:46:00,
2013-02-18 12:48:00,43.8,32.4,29.78,South,180,7.0,16.0,64,0.02,,---,0.02,VWS V14.00,2013-02-18 17:48:00,
2013-02-18 12:51:00,43.8,32.4,29.78,South,178,4.0,16.0,64,0.02,,---,0.02,VWS V14.00,2013-02-18 17:51:00,
2013-02-18 12:52:00,43.9,32.9,29.78,South,179,5.0,16.0,65,0.02,,---,0.02,VWS V14.00,2013-02-18 17:52:00,
2013-02-18 12:56:00,43.9,32.1,29.77,SSW,196,5.0,16.0,63,0.02,,---,0.02,VWS V14.00,2013-02-18 17:56:00,
2013-02-18 12:57:00,43.9,32.1,29.77,SSE,153,5.0,16.0,63,0.02,,---,0.02,VWS V14.00,2013-02-18 17:57:00,
2013-02-18 12:58:00,44.0,32.6,29.77,South,176,9.0,16.0,64,0.02,,---,0.02,VWS V14.00,2013-02-18 17:58:00,
2013-02-18 13:01:00,44.2,32.4,29.77,SE,132,7.0,14.0,63,0.01,,---,0.02,VWS V14.00,2013-02-18 18:01:00,
2013-02-18 13:02:00,44.3,33.3,29.77,SSE,167,6.0,16.0,65,0.01,,---,0.02,VWS V14.00,2013-02-18 18:02:00,
2013-02-18 13:03:00,44.6,34.0,29.77,South,171,2.0,16.0,66,0.01,,---,0.02,VWS V14.00,2013-02-18 18:03:00,
2013-02-18 13:07:00,45.0,33.2,29.76,South,178,6.0,16.0,63,0.01,,---,0.02,VWS V14.00,2013-02-18 18:07:00,
2013-02-18 13:08:00,45.1,34.0,29.76,South,187,5.0,16.0,65,0.01,,---,0.02,VWS V14.00,2013-02-18 18:08:00,
2013-02-18 13:11:00,45.4,33.6,29.76,SSE,161,5.0,16.0,63,0.01,,---,0.02,VWS V14.00,2013-02-18 18:11:00,
2013-02-18 13:15:00,45.6,33.3,29.76,South,176,3.0,16.0,62,0.01,,---,0.02,VWS V14.00,2013-02-18 18:15:00,
2013-02-18 13:18:00,45.7,33.8,29.76,South,188,8.0,16.0,63,0.01,,---,0.02,VWS V14.00,2013-02-18 18:18:00,
2013-02-18 13:20:00,45.7,33.4,29.75,South,173,4.0,16.0,62,0.01,,---,0.02,VWS V14.00,2013-02-18 18:20:00,
2013-02-18 13:21:00,45.8,33.5,29.75,South,180,5.0,16.0,62,0.01,,---,0.02,VWS V14.00,2013-02-18 18:21:00,
2013-02-18 13:25:00,46.3,34.4,29.75,SSE,162,7.0,16.0,63,0.01,,---,0.02,VWS V14.00,2013-02-18 18:25:00,
2013-02-18 13:26:00,46.3,34.0,29.75,South,189,5.0,16.0,62,0.01,,---,0.02,VWS V14.00,2013-02-18 18:26:00,
2013-02-18 13:28:00,46.4,34.9,29.75,SSW,196,7.0,16.0,64,0.01,,---,0.02,VWS V14.00,2013-02-18 18:28:00,
2013-02-18 13:31:00,46.3,34.4,29.75,South,189,7.0,16.0,63,0.01,,---,0.02,VWS V14.00,2013-02-18 18:31:00,
2013-02-18 13:32:00,46.3,34.4,29.75,SSE,153,9.0,16.0,63,0.01,,---,0.02,VWS V14.00,2013-02-18 18:32:00,
2013-02-18 13:33:00,46.4,35.3,29.75,SSW,200,5.0,16.0,65,0.01,,---,0.02,VWS V14.00,2013-02-18 18:33:00,
2013-02-18 13:37:00,46.5,35.0,29.75,South,179,4.0,16.0,64,0.01,,---,0.02,VWS V14.00,2013-02-18 18:37:00,
2013-02-18 13:39:00,46.7,35.2,29.74,SSW,192,2.0,16.0,64,0.01,,---,0.02,VWS V14.00,2013-02-18 18:39:00,
2013-02-18 13:42:00,46.8,34.5,29.74,South,179,5.0,16.0,62,0.01,,---,0.02,VWS V14.00,2013-02-18 18:42:00,
2013-02-18 13:46:00,47.0,35.5,29.74,SSE,163,5.0,16.0,64,0.01,,---,0.02,VWS V14.00,2013-02-18 18:46:00,
2013-02-18 13:49:00,47.5,35.5,29.74,SSE,167,8.0,16.0,63,0.01,,---,0.02,VWS V14.00,2013-02-18 18:49:00,
2013-02-18 13:52:00,47.7,35.3,29.74,SSE,168,3.0,16.0,62,0.01,,---,0.02,VWS V14.00,2013-02-18 18:52:00,
2013-02-18 13:55:00,48.1,36.1,29.73,South,191,7.0,16.0,63,0.01,,---,0.02,VWS V14.00,2013-02-18 18:55:00,
2013-02-18 13:57:00,48.2,36.2,29.73,SSW,210,10.0,16.0,63,0.01,,---,0.02,VWS V14.00,2013-02-18 18:57:00,
2013-02-18 13:58:00,48.3,36.3,29.73,South,190,5.0,16.0,63,0.01,,---,0.02,VWS V14.00,2013-02-18 18:58:00,
2013-02-18 14:01:00,48.4,36.4,29.73,South,186,6.0,17.0,63,0.00,,---,0.02,VWS V14.00,2013-02-18 19:01:00,
2013-02-18 14:03:00,48.3,35.5,29.73,SSW,195,7.0,17.0,61,0.00,,---,0.02,VWS V14.00,2013-02-18 19:03:00,
2013-02-18 14:05:00,48.2,35.4,29.72,South,169,4.0,17.0,61,0.00,,---,0.02,VWS V14.00,2013-02-18 19:05:00,
2013-02-18 14:07:00,48.2,35.8,29.72,South,170,10.0,17.0,62,0.00,,---,0.02,VWS V14.00,2013-02-18 19:07:00,
2013-02-18 14:10:00,48.2,35.8,29.72,SSE,157,4.0,17.0,62,0.00,,---,0.02,VWS V14.00,2013-02-18 19:10:00,
2013-02-18 14:11:00,48.3,35.9,29.72,South,184,3.0,17.0,62,0.00,,---,0.02,VWS V14.00,2013-02-18 19:11:00,
2013-02-18 14:13:00,48.4,36.4,29.72,South,177,7.0,17.0,63,0.00,,---,0.02,VWS V14.00,2013-02-18 19:13:00,
2013-02-18 14:15:00,48.5,36.1,29.71,SSW,207,5.0,17.0,62,0.00,,---,0.02,VWS V14.00,2013-02-18 19:15:00,
2013-02-18 14:16:00,48.5,36.1,29.71,SSE,167,5.0,17.0,62,0.00,,---,0.02,VWS V14.00,2013-02-18 19:16:00,
2013-02-18 14:19:00,48.8,36.8,29.71,South,171,7.0,17.0,63,0.00,,---,0.02,VWS V14.00,2013-02-18 19:19:00,
2013-02-18 14:20:00,48.8,36.8,29.71,South,188,6.0,17.0,63,0.00,,---,0.02,VWS V14.00,2013-02-18 19:20:00,
2013-02-18 14:21:00,48.8,36.8,29.71,SSW,195,3.0,17.0,63,0.00,,---,0.02,VWS V14.00,2013-02-18 19:21:00,
2013-02-18 14:24:00,48.8,36.4,29.70,SSE,167,6.0,20.0,62,0.00,,---,0.02,VWS V14.00,2013-02-18 19:24:00,
2013-02-18 14:25:00,48.7,36.3,29.70,South,179,6.0,20.0,62,0.00,,---,0.02,VWS V14.00,2013-02-18 19:25:00,
2013-02-18 14:28:00,48.8,37.2,29.70,South,179,7.0,20.0,64,0.00,,---,0.02,VWS V14.00,2013-02-18 19:28:00,
2013-02-18 14:30:00,49.0,37.0,29.70,SSE,165,6.0,16.0,63,0.00,,---,0.02,VWS V14.00,2013-02-18 19:30:00,
2013-02-18 14:32:00,49.2,37.2,29.70,South,178,10.0,16.0,63,0.00,,---,0.02,VWS V14.00,2013-02-18 19:32:00,
2013-02-18 14:34:00,49.2,37.2,29.70,South,179,11.0,16.0,63,0.00,,---,0.02,VWS V14.00,2013-02-18 19:34:00,
2013-02-18 14:37:00,49.3,38.0,29.70,South,173,5.0,16.0,65,0.00,,---,0.02,VWS V14.00,2013-02-18 19:37:00,
2013-02-18 14:39:00,49.5,37.8,29.70,South,182,6.0,16.0,64,0.00,,---,0.02,VWS V14.00,2013-02-18 19:39:00,
2013-02-18 14:40:00,49.4,37.3,29.69,SW,218,7.0,16.0,63,0.00,,---,0.02,VWS V14.00,2013-02-18 19:40:00,
2013-02-18 14:42:00,49.4,37.3,29.69,SSE,150,7.0,16.0,63,0.00,,---,0.02,VWS V14.00,2013-02-18 19:42:00,
2013-02-18 14:45:00,49.6,37.9,29.70,South,182,10.0,16.0,64,0.00,,---,0.02,VWS V14.00,2013-02-18 19:45:00,
2013-02-18 14:48:00,49.7,37.6,29.70,South,173,3.0,16.0,63,0.00,,---,0.02,VWS V14.00,2013-02-18 19:48:00,
2013-02-18 14:50:00,49.8,37.7,29.69,South,180,9.0,17.0,63,0.00,,---,0.02,VWS V14.00,2013-02-18 19:50:00,
2013-02-18 14:51:00,49.8,37.7,29.69,South,188,6.0,17.0,63,0.00,,---,0.02,VWS V14.00,2013-02-18 19:51:00,
2013-02-18 14:53:00,49.8,37.7,29.69,SSE,155,2.0,17.0,63,0.00,,---,0.02,VWS V14.00,2013-02-18 19:53:00,
2013-02-18 14:56:00,49.9,37.8,29.69,SSW,209,2.0,17.0,63,0.00,,---,0.02,VWS V14.00,2013-02-18 19:56:00,
2013-02-18 14:58:00,49.9,37.8,29.69,SSW,210,5.0,17.0,63,0.00,,---,0.02,VWS V14.00,2013-02-18 19:58:00,
2013-02-18 15:03:00,50.1,38.0,29.69,South,184,3.0,17.0,63,0.00,,---,0.02,VWS V14.00,2013-02-18 20:03:00,
2013-02-18 15:04:00,50.1,38.4,29.69,SSE,168,5.0,17.0,64,0.00,,---,0.02,VWS V14.00,2013-02-18 20:04:00,
2013-02-18 15:09:00,50.2,38.1,29.68,South,173,5.0,17.0,63,0.00,,---,0.02,VWS V14.00,2013-02-18 20:09:00,
2013-02-18 15:10:00,50.2,38.1,29.69,South,179,8.0,17.0,63,0.00,,---,0.02,VWS V14.00,2013-02-18 20:10:00,
2013-02-18 15:14:00,50.3,38.2,29.68,South,179,7.0,17.0,63,0.00,,---,0.02,VWS V14.00,2013-02-18 20:14:00,
2013-02-18 15:15:00,50.2,38.1,29.68,South,180,5.0,17.0,63,0.00,,---,0.02,VWS V14.00,2013-02-18 20:15:00,
2013-02-18 15:16:00,50.2,38.1,29.68,South,179,2.0,17.0,63,0.00,,---,0.02,VWS V14.00,2013-02-18 20:16:00,
2013-02-18 15:20:00,50.3,38.6,29.68,South,173,5.0,17.0,64,0.00,,---,0.02,VWS V14.00,2013-02-18 20:20:00,
2013-02-18 15:22:00,50.4,39.1,29.68,South,170,9.0,17.0,65,0.00,,---,0.02,VWS V14.00,2013-02-18 20:22:00,
2013-02-18 15:25:00,50.3,38.6,29.69,South,173,5.0,17.0,64,0.00,,---,0.02,VWS V14.00,2013-02-18 20:25:00,
2013-02-18 15:26:00,50.3,38.6,29.69,South,183,4.0,17.0,64,0.00,,---,0.02,VWS V14.00,2013-02-18 20:26:00,
2013-02-18 15:29:00,50.3,38.6,29.69,South,169,6.0,10.0,64,0.00,,---,0.02,VWS V14.00,2013-02-18 20:29:00,
2013-02-18 15:31:00,50.3,39.0,29.69,South,172,7.0,11.0,65,0.00,,---,0.02,VWS V14.00,2013-02-18 20:31:00,
2013-02-18 15:35:00,50.3,39.0,29.69,SSW,192,4.0,11.0,65,0.00,,---,0.02,VWS V14.00,2013-02-18 20:35:00,
2013-02-18 15:36:00,50.4,39.5,29.68,SSE,165,3.0,11.0,66,0.00,,---,0.02,VWS V14.00,2013-02-18 20:36:00,
2013-02-18 15:37:00,50.4,39.5,29.68,South,183,4.0,11.0,66,0.00,,---,0.02,VWS V14.00,2013-02-18 20:37:00,
2013-02-18 15:40:00,50.1,38.8,29.68,SSW,198,10.0,16.0,65,0.00,,---,0.02,VWS V14.00,2013-02-18 20:40:00,
2013-02-18 15:42:00,50.0,38.7,29.68,South,188,4.0,16.0,65,0.00,,---,0.02,VWS V14.00,2013-02-18 20:42:00,
2013-02-18 15:45:00,49.9,38.6,29.68,SW,233,10.0,16.0,65,0.00,,---,0.02,VWS V14.00,2013-02-18 20:45:00,
2013-02-18 15:47:00,50.0,39.1,29.68,SSW,192,7.0,16.0,66,0.00,,---,0.02,VWS V14.00,2013-02-18 20:47:00,
2013-02-18 15:49:00,50.0,39.5,29.68,SSW,194,2.0,16.0,67,0.00,,---,0.02,VWS V14.00,2013-02-18 20:49:00,
2013-02-18 15:50:00,50.1,39.6,29.68,South,178,10.0,16.0,67,0.00,,---,0.02,VWS V14.00,2013-02-18 20:50:00,
2013-02-18 15:52:00,50.1,39.2,29.68,South,170,13.0,16.0,66,0.00,,---,0.02,VWS V14.00,2013-02-18 20:52:00,
2013-02-18 15:56:00,49.9,39.0,29.67,SSW,195,5.0,16.0,66,0.00,,---,0.02,VWS V14.00,2013-02-18 20:56:00,
2013-02-18 15:58:00,50.0,39.5,29.67,South,174,6.0,16.0,67,0.00,,---,0.02,VWS V14.00,2013-02-18 20:58:00,
2013-02-18 15:59:00,50.0,39.5,29.67,SSW,192,2.0,6.0,67,0.00,,---,0.02,VWS V14.00,2013-02-18 20:59:00,
2013-02-18 16:02:00,50.0,39.1,29.67,SSW,195,5.0,9.0,66,0.00,,---,0.02,VWS V14.00,2013-02-18 21:02:00,
2013-02-18 16:03:00,50.1,40.0,29.67,South,177,4.0,9.0,68,0.00,,---,0.02,VWS V14.00,2013-02-18 21:03:00,
2013-02-18 16:06:00,50.1,39.6,29.67,SSE,167,3.0,10.0,67,0.00,,---,0.02,VWS V14.00,2013-02-18 21:06:00,
2013-02-18 16:07:00,50.1,39.6,29.67,South,187,5.0,10.0,67,0.00,,---,0.02,VWS V14.00,2013-02-18 21:07:00,
2013-02-18 16:09:00,50.1,40.0,29.67,South,184,10.0,10.0,68,0.00,,---,0.02,VWS V14.00,2013-02-18 21:09:00,
2013-02-18 16:11:00,50.1,40.0,29.67,South,185,5.0,10.0,68,0.00,,---,0.02,VWS V14.00,2013-02-18 21:11:00,
2013-02-18 16:14:00,50.1,40.0,29.66,South,176,6.0,10.0,68,0.00,,---,0.02,VWS V14.00,2013-02-18 21:14:00,
2013-02-18 16:15:00,50.2,40.4,29.66,South,169,2.0,10.0,69,0.00,,---,0.02,VWS V14.00,2013-02-18 21:15:00,
2013-02-18 16:17:00,50.2,40.4,29.66,South,183,2.0,10.0,69,0.00,,---,0.02,VWS V14.00,2013-02-18 21:17:00,
2013-02-18 16:19:00,50.3,40.5,29.66,South,170,3.0,10.0,69,0.00,,---,0.02,VWS V14.00,2013-02-18 21:19:00,
2013-02-18 16:21:00,50.3,40.5,29.66,South,175,7.0,10.0,69,0.00,,---,0.02,VWS V14.00,2013-02-18 21:21:00,
2013-02-18 16:24:00,50.2,40.1,29.66,South,171,4.0,10.0,68,0.00,,---,0.02,VWS V14.00,2013-02-18 21:24:00,
2013-02-18 16:26:00,50.2,40.4,29.66,SSE,165,3.0,10.0,69,0.00,,---,0.02,VWS V14.00,2013-02-18 21:26:00,
2013-02-18 16:29:00,50.2,40.4,29.65,SSE,167,5.0,7.0,69,0.00,,---,0.02,VWS V14.00,2013-02-18 21:29:00,
2013-02-18 16:32:00,50.3,40.9,29.65,South,170,5.0,7.0,70,0.00,,---,0.02,VWS V14.00,2013-02-18 21:32:00,
2013-02-18 16:34:00,50.4,41.0,29.65,South,186,7.0,10.0,70,0.00,,---,0.02,VWS V14.00,2013-02-18 21:34:00,
2013-02-18 16:37:00,50.4,40.6,29.65,SSW,200,1.0,10.0,69,0.00,,---,0.02,VWS V14.00,2013-02-18 21:37:00,
2013-02-18 16:41:00,50.4,40.6,29.65,SSW,194,4.0,10.0,69,0.00,,---,0.02,VWS V14.00,2013-02-18 21:41:00,
2013-02-18 16:42:00,50.4,40.6,29.65,South,191,1.0,10.0,69,0.00,,---,0.02,VWS V14.00,2013-02-18 21:42:00,
2013-02-18 16:47:00,50.5,40.7,29.65,SSE,164,5.0,10.0,69,0.00,,---,0.02,VWS V14.00,2013-02-18 21:47:00,
2013-02-18 16:49:00,50.5,41.1,29.65,South,190,2.0,10.0,70,0.00,,---,0.02,VWS V14.00,2013-02-18 21:49:00,
2013-02-18 16:52:00,50.5,41.1,29.65,SSW,205,7.0,10.0,70,0.00,,---,0.02,VWS V14.00,2013-02-18 21:52:00,
2013-02-18 16:54:00,50.5,41.1,29.65,SSW,206,2.0,10.0,70,0.00,,---,0.02,VWS V14.00,2013-02-18 21:54:00,
2013-02-18 16:58:00,50.5,41.1,29.64,SSW,194,3.0,10.0,70,0.00,,---,0.02,VWS V14.00,2013-02-18 21:58:00,
2013-02-18 16:59:00,50.5,41.5,29.64,SSW,192,3.0,5.0,71,0.00,,---,0.02,VWS V14.00,2013-02-18 21:59:00,
2013-02-18 17:01:00,50.5,41.5,29.64,South,171,5.0,10.0,71,0.00,,---,0.02,VWS V14.00,2013-02-18 22:01:00,
2013-02-18 17:04:00,50.7,41.7,29.64,South,180,3.0,10.0,71,0.00,,---,0.02,VWS V14.00,2013-02-18 22:04:00,
2013-02-18 17:05:00,50.7,41.7,29.64,SSW,196,5.0,10.0,71,0.00,,---,0.02,VWS V14.00,2013-02-18 22:05:00,
2013-02-18 17:06:00,50.7,42.0,29.64,SSW,195,1.0,10.0,72,0.00,,---,0.02,VWS V14.00,2013-02-18 22:06:00,
2013-02-18 17:10:00,50.8,42.5,29.64,South,170,3.0,10.0,73,0.00,,---,0.02,VWS V14.00,2013-02-18 22:10:00,
2013-02-18 17:13:00,50.8,42.5,29.64,South,179,3.0,10.0,73,0.00,,---,0.02,VWS V14.00,2013-02-18 22:13:00,
2013-02-18 17:16:00,50.7,42.4,29.64,SSW,209,3.0,10.0,73,0.00,,---,0.02,VWS V14.00,2013-02-18 22:16:00,
2013-02-18 17:17:00,50.6,42.6,29.64,South,189,2.0,10.0,74,0.00,,---,0.02,VWS V14.00,2013-02-18 22:17:00,
2013-02-18 17:18:00,50.6,42.6,29.64,South,181,3.0,10.0,74,0.00,,---,0.02,VWS V14.00,2013-02-18 22:18:00,
2013-02-18 17:21:00,50.6,42.6,29.64,SSE,152,2.0,12.0,74,0.00,,---,0.02,VWS V14.00,2013-02-18 22:21:00,
2013-02-18 17:24:00,50.6,43.0,29.64,South,186,5.0,13.0,75,0.00,,---,0.02,VWS V14.00,2013-02-18 22:24:00,
2013-02-18 17:28:00,50.5,43.2,29.64,SSE,149,4.0,15.0,76,0.00,,---,0.02,VWS V14.00,2013-02-18 22:28:00,
2013-02-18 17:29:00,50.5,43.6,29.64,South,191,9.0,12.0,77,0.00,,---,0.02,VWS V14.00,2013-02-18 22:29:00,
2013-02-18 17:30:00,50.4,43.5,29.64,SE,140,7.0,12.0,77,0.00,,---,0.02,VWS V14.00,2013-02-18 22:30:00,
2013-02-18 17:35:00,50.1,43.8,29.63,South,175,9.0,14.0,79,0.00,,---,0.02,VWS V14.00,2013-02-18 22:35:00,
2013-02-18 17:36:00,49.9,44.0,29.64,South,189,3.0,14.0,80,0.01,,---,0.03,VWS V14.00,2013-02-18 22:36:00,
2013-02-18 17:40:00,49.5,44.2,29.63,SSE,163,10.0,14.0,82,0.01,,---,0.03,VWS V14.00,2013-02-18 22:40:00,
2013-02-18 17:42:00,49.4,44.1,29.64,South,190,7.0,17.0,82,0.01,,---,0.03,VWS V14.00,2013-02-18 22:42:00,
2013-02-18 17:45:00,49.2,44.0,29.64,South,174,5.0,17.0,82,0.01,,---,0.03,VWS V14.00,2013-02-18 22:45:00,
2013-02-18 17:46:00,49.2,44.0,29.64,South,171,4.0,17.0,82,0.01,,---,0.03,VWS V14.00,2013-02-18 22:46:00,
2013-02-18 17:47:00,49.1,44.2,29.64,SW,219,6.0,17.0,83,0.01,,---,0.03,VWS V14.00,2013-02-18 22:47:00,
2013-02-18 17:50:00,48.9,44.0,29.64,SE,140,9.0,17.0,83,0.01,,---,0.03,VWS V14.00,2013-02-18 22:50:00,
2013-02-18 17:53:00,48.6,44.0,29.64,South,169,9.0,17.0,84,0.01,,---,0.03,VWS V14.00,2013-02-18 22:53:00,
2013-02-18 17:56:00,48.4,44.1,29.64,SSE,167,8.0,17.0,85,0.01,,---,0.03,VWS V14.00,2013-02-18 22:56:00,
2013-02-18 17:59:00,48.1,44.1,29.64,SSW,194,9.0,12.0,86,0.01,,---,0.03,VWS V14.00,2013-02-18 22:59:00,
2013-02-18 18:00:00,48.0,44.0,29.64,South,182,6.0,13.0,86,0.01,,---,0.03,VWS V14.00,2013-02-18 23:00:00,
2013-02-18 18:05:00,47.6,43.9,29.64,SSW,198,4.0,14.0,87,0.01,,---,0.03,VWS V14.00,2013-02-18 23:05:00,
2013-02-18 18:06:00,47.4,44.0,29.64,SSW,213,12.0,14.0,88,0.01,,---,0.03,VWS V14.00,2013-02-18 23:06:00,
2013-02-18 18:11:00,47.2,44.1,29.64,South,175,7.0,14.0,89,0.01,,---,0.03,VWS V14.00,2013-02-18 23:11:00,
2013-02-18 18:12:00,47.1,44.0,29.64,South,177,6.0,14.0,89,0.01,,---,0.03,VWS V14.00,2013-02-18 23:12:00,
2013-02-18 18:17:00,46.5,43.7,29.64,SSE,167,7.0,14.0,90,0.02,,---,0.04,VWS V14.00,2013-02-18 23:17:00,
2013-02-18 18:19:00,46.4,43.9,29.64,SSW,192,4.0,14.0,91,0.02,,---,0.04,VWS V14.00,2013-02-18 23:19:00,
2013-02-18 18:22:00,46.0,43.5,29.64,SSW,196,6.0,16.0,91,0.03,,---,0.05,VWS V14.00,2013-02-18 23:22:00,
2013-02-18 18:23:00,46.0,43.5,29.64,South,176,6.0,16.0,91,0.03,,---,0.05,VWS V14.00,2013-02-18 23:23:00,
2013-02-18 18:25:00,45.9,43.7,29.64,South,180,13.0,16.0,92,0.03,,---,0.05,VWS V14.00,2013-02-18 23:25:00,
2013-02-18 18:27:00,45.8,43.6,29.64,South,176,9.0,16.0,92,0.03,,---,0.05,VWS V14.00,2013-02-18 23:27:00,
2013-02-18 18:28:00,45.6,43.4,29.64,South,178,4.0,16.0,92,0.03,,---,0.05,VWS V14.00,2013-02-18 23:28:00,
2013-02-18 18:30:00,45.7,43.5,29.63,SSE,168,5.0,13.0,92,0.03,,---,0.05,VWS V14.00,2013-02-18 23:30:00,
2013-02-18 18:34:00,45.5,43.6,29.63,South,169,3.0,13.0,93,0.04,,---,0.06,VWS V14.00,2013-02-18 23:34:00,
2013-02-18 18:36:00,45.6,43.7,29.63,South,178,4.0,13.0,93,0.04,,---,0.06,VWS V14.00,2013-02-18 23:36:00,
2013-02-18 18:38:00,45.6,43.7,29.63,SSW,195,10.0,14.0,93,0.04,,---,0.06,VWS V14.00,2013-02-18 23:38:00,
2013-02-18 18:41:00,45.5,43.6,29.63,South,182,5.0,14.0,93,0.04,,---,0.06,VWS V14.00,2013-02-18 23:41:00,
2013-02-18 18:45:00,45.5,43.9,29.63,SW,215,7.0,17.0,94,0.05,,---,0.07,VWS V14.00,2013-02-18 23:45:00,
2013-02-18 18:46:00,45.4,43.8,29.63,South,173,6.0,17.0,94,0.05,,---,0.07,VWS V14.00,2013-02-18 23:46:00,
2013-02-18 18:49:00,45.4,43.8,29.63,SSE,167,12.0,17.0,94,0.05,,---,0.07,VWS V14.00,2013-02-18 23:49:00,
2013-02-18 18:51:00,45.4,43.8,29.63,South,173,6.0,17.0,94,0.05,,---,0.07,VWS V14.00,2013-02-18 23:51:00,
2013-02-18 18:56:00,45.4,43.8,29.63,SSW,192,7.0,17.0,94,0.05,,---,0.07,VWS V14.00,2013-02-18 23:56:00,
2013-02-18 18:57:00,45.4,43.8,29.63,South,182,3.0,17.0,94,0.05,,---,0.07,VWS V14.00,2013-02-18 23:57:00,
2013-02-18 18:58:00,45.3,43.7,29.62,South,169,5.0,6.0,94,0.04,,---,0.07,VWS V14.00,2013-02-18 23:58:00,
2013-02-18 19:02:00,45.2,43.6,29.62,South,175,4.0,12.0,94,0.05,,---,0.08,VWS V14.00,2013-02-19 00:02:00,
2013-02-18 19:03:00,45.2,43.6,29.63,South,183,6.0,12.0,94,0.05,,---,0.08,VWS V14.00,2013-02-19 00:03:00,
2013-02-18 19:04:00,45.1,43.5,29.63,South,186,6.0,12.0,94,0.05,,---,0.08,VWS V14.00,2013-02-19 00:04:00,
2013-02-18 19:07:00,45.3,44.0,29.62,South,184,9.0,12.0,95,0.05,,---,0.08,VWS V14.00,2013-02-19 00:07:00,
2013-02-18 19:09:00,45.4,44.0,29.62,South,171,9.0,13.0,95,0.05,,---,0.08,VWS V14.00,2013-02-19 00:09:00,
2013-02-18 19:11:00,45.4,44.0,29.62,South,175,9.0,13.0,95,0.05,,---,0.08,VWS V14.00,2013-02-19 00:11:00,
2013-02-18 19:14:00,45.1,43.8,29.62,South,170,8.0,15.0,95,0.05,,---,0.08,VWS V14.00,2013-02-19 00:14:00,
2013-02-18 19:16:00,45.4,44.0,29.62,SSE,163,4.0,15.0,95,0.05,,---,0.08,VWS V14.00,2013-02-19 00:16:00,
2013-02-18 19:19:00,45.4,44.0,29.62,SW,223,3.0,18.0,95,0.05,,---,0.08,VWS V14.00,2013-02-19 00:19:00,
2013-02-18 19:21:00,45.2,43.9,29.61,SSW,196,4.0,18.0,95,0.05,,---,0.08,VWS V14.00,2013-02-19 00:21:00,
2013-02-18 19:24:00,45.2,43.9,29.61,SSW,199,2.0,18.0,95,0.05,,---,0.08,VWS V14.00,2013-02-19 00:24:00,
2013-02-18 19:26:00,45.4,44.0,29.61,South,184,3.0,18.0,95,0.05,,---,0.08,VWS V14.00,2013-02-19 00:26:00,
2013-02-18 19:30:00,45.1,43.8,29.61,South,184,4.0,9.0,95,0.04,,---,0.09,VWS V14.00,2013-02-19 00:30:00,
2013-02-18 19:32:00,45.1,43.8,29.61,South,176,3.0,9.0,95,0.04,,---,0.09,VWS V14.00,2013-02-19 00:32:00,
2013-02-18 19:35:00,45.3,44.0,29.60,South,174,2.0,13.0,95,0.04,,---,0.09,VWS V14.00,2013-02-19 00:35:00,
2013-02-18 19:38:00,45.5,44.2,29.60,South,183,3.0,13.0,95,0.04,,---,0.09,VWS V14.00,2013-02-19 00:38:00,
2013-02-18 19:41:00,45.3,44.0,29.60,South,190,5.0,13.0,95,0.04,,---,0.09,VWS V14.00,2013-02-19 00:41:00,
2013-02-18 19:43:00,45.3,44.0,29.60,South,177,3.0,13.0,95,0.04,,---,0.09,VWS V14.00,2013-02-19 00:43:00,
2013-02-18 19:46:00,45.5,44.2,29.59,SSW,196,3.0,13.0,95,0.04,,---,0.09,VWS V14.00,2013-02-19 00:46:00,
2013-02-18 19:47:00,45.5,44.2,29.59,South,171,2.0,13.0,95,0.04,,---,0.09,VWS V14.00,2013-02-19 00:47:00,
2013-02-18 19:48:00,45.6,44.2,29.59,South,178,6.0,13.0,95,0.04,,---,0.09,VWS V14.00,2013-02-19 00:48:00,
2013-02-18 19:53:00,45.6,44.2,29.59,SSE,166,3.0,13.0,95,0.04,,---,0.09,VWS V14.00,2013-02-19 00:53:00,
2013-02-18 19:54:00,45.5,44.2,29.59,South,180,11.0,13.0,95,0.04,,---,0.09,VWS V14.00,2013-02-19 00:54:00,
2013-02-18 19:59:00,45.4,44.0,29.59,South,173,3.0,6.0,95,0.02,,---,0.09,VWS V14.00,2013-02-19 00:59:00,
2013-02-18 20:00:00,45.5,44.2,29.59,South,178,4.0,7.0,95,0.02,,---,0.09,VWS V14.00,2013-02-19 01:00:00,
2013-02-18 20:04:00,45.4,43.8,29.59,SSE,162,6.0,11.0,94,0.02,,---,0.09,VWS V14.00,2013-02-19 01:04:00,
2013-02-18 20:06:00,45.5,44.2,29.59,South,186,5.0,11.0,95,0.02,,---,0.09,VWS V14.00,2013-02-19 01:06:00,
2013-02-18 20:09:00,45.5,43.9,29.58,South,180,5.0,11.0,94,0.02,,---,0.09,VWS V14.00,2013-02-19 01:09:00,
2013-02-18 20:10:00,45.5,43.9,29.58,South,182,2.0,11.0,94,0.02,,---,0.09,VWS V14.00,2013-02-19 01:10:00,
2013-02-18 20:14:00,45.6,44.0,29.58,South,184,2.0,12.0,94,0.02,,---,0.09,VWS V14.00,2013-02-19 01:14:00,
2013-02-18 20:15:00,45.7,44.1,29.58,South,174,4.0,12.0,94,0.02,,---,0.09,VWS V14.00,2013-02-19 01:15:00,
2013-02-18 20:16:00,45.7,44.1,29.58,SSW,205,6.0,15.0,94,0.02,,---,0.09,VWS V14.00,2013-02-19 01:16:00,
2013-02-18 20:19:00,45.8,44.2,29.57,SSW,196,10.0,15.0,94,0.02,,---,0.09,VWS V14.00,2013-02-19 01:19:00,
2013-02-18 20:20:00,45.9,44.3,29.57,SSE,167,7.0,15.0,94,0.02,,---,0.09,VWS V14.00,2013-02-19 01:20:00,
2013-02-18 20:22:00,46.0,44.1,29.57,SSW,194,4.0,15.0,93,0.02,,---,0.09,VWS V14.00,2013-02-19 01:22:00,
2013-02-18 20:26:00,46.3,44.4,29.57,SSW,200,11.0,16.0,93,0.02,,---,0.09,VWS V14.00,2013-02-19 01:26:00,
2013-02-18 20:27:00,46.3,44.4,29.57,SSW,206,4.0,16.0,93,0.02,,---,0.09,VWS V14.00,2013-02-19 01:27:00,
2013-02-18 20:28:00,46.4,44.2,29.57,SSW,211,6.0,16.0,92,0.02,,---,0.09,VWS V14.00,2013-02-19 01:28:00,
2013-02-18 20:32:00,46.7,44.2,29.56,SSW,200,2.0,12.0,91,0.00,,---,0.09,VWS V14.00,2013-02-19 01:32:00,
2013-02-18 20:34:00,46.8,44.3,29.56,SSE,167,6.0,12.0,91,0.00,,---,0.09,VWS V14.00,2013-02-19 01:34:00,
2013-02-18 20:38:00,46.9,44.1,29.56,SSE,166,6.0,13.0,90,0.00,,---,0.09,VWS V14.00,2013-02-19 01:38:00,
2013-02-18 20:39:00,46.9,44.1,29.56,SW,227,6.0,13.0,90,0.00,,---,0.09,VWS V14.00,2013-02-19 01:39:00,
2013-02-18 20:40:00,46.9,43.8,29.56,SSW,192,4.0,13.0,89,0.00,,---,0.09,VWS V14.00,2013-02-19 01:40:00,
2013-02-18 20:44:00,47.0,43.6,29.56,South,186,5.0,14.0,88,0.00,,---,0.09,VWS V14.00,2013-02-19 01:44:00,
2013-02-18 20:46:00,47.0,43.6,29.56,South,191,3.0,14.0,88,0.00,,---,0.09,VWS V14.00,2013-02-19 01:46:00,
2013-02-18 20:49:00,47.0,43.3,29.56,SE,133,6.0,15.0,87,0.00,,---,0.09,VWS V14.00,2013-02-19 01:49:00,
2013-02-18 20:51:00,46.9,43.2,29.56,SSE,163,7.0,15.0,87,0.00,,---,0.09,VWS V14.00,2013-02-19 01:51:00,
2013-02-18 20:52:00,46.9,43.2,29.56,SSW,201,5.0,15.0,87,0.00,,---,0.09,VWS V14.00,2013-02-19 01:52:00,
2013-02-18 20:55:00,46.9,43.2,29.56,SSW,193,14.0,18.0,87,0.00,,---,0.09,VWS V14.00,2013-02-19 01:55:00,
2013-02-18 20:58:00,46.8,43.1,29.55,South,180,4.0,18.0,87,0.00,,---,0.09,VWS V14.00,2013-02-19 01:58:00,
2013-02-18 21:01:00,46.7,43.0,29.55,South,182,4.0,12.0,87,0.00,,---,0.09,VWS V14.00,2013-02-19 02:01:00,
2013-02-18 21:03:00,46.7,43.0,29.55,SSW,200,5.0,12.0,87,0.01,,---,0.10,VWS V14.00,2013-02-19 02:03:00,
2013-02-18 21:05:00,46.6,42.9,29.55,South,170,5.0,12.0,87,0.01,,---,0.10,VWS V14.00,2013-02-19 02:05:00,
2013-02-18 21:06:00,46.5,43.1,29.55,South,171,3.0,12.0,88,0.01,,---,0.10,VWS V14.00,2013-02-19 02:06:00,
2013-02-18 21:09:00,46.5,43.1,29.55,South,178,7.0,12.0,88,0.01,,---,0.10,VWS V14.00,2013-02-19 02:09:00,
2013-02-18 21:11:00,46.5,43.1,29.55,SW,224,4.0,12.0,88,0.01,,---,0.10,VWS V14.00,2013-02-19 02:11:00,
2013-02-18 21:16:00,46.4,43.0,29.55,South,183,4.0,12.0,88,0.01,,---,0.10,VWS V14.00,2013-02-19 02:16:00,
2013-02-18 21:17:00,46.3,43.0,29.55,South,187,3.0,12.0,88,0.02,,---,0.11,VWS V14.00,2013-02-19 02:17:00,
2013-02-18 21:19:00,46.3,43.0,29.54,South,178,4.0,12.0,88,0.02,,---,0.11,VWS V14.00,2013-02-19 02:19:00,
2013-02-18 21:22:00,46.3,43.0,29.54,SSE,165,3.0,12.0,88,0.02,,---,0.11,VWS V14.00,2013-02-19 02:22:00,
2013-02-18 21:23:00,46.2,42.8,29.54,SSW,206,5.0,12.0,88,0.02,,---,0.11,VWS V14.00,2013-02-19 02:23:00,
2013-02-18 21:27:00,46.3,43.0,29.54,South,173,7.0,12.0,88,0.02,,---,0.11,VWS V14.00,2013-02-19 02:27:00,
2013-02-18 21:28:00,46.3,43.0,29.54,South,180,3.0,12.0,88,0.02,,---,0.11,VWS V14.00,2013-02-19 02:28:00,
2013-02-18 21:30:00,46.3,43.0,29.54,South,171,5.0,10.0,88,0.02,,---,0.11,VWS V14.00,2013-02-19 02:30:00,
2013-02-18 21:33:00,46.3,43.0,29.54,South,180,1.0,10.0,88,0.02,,---,0.11,VWS V14.00,2013-02-19 02:33:00,
2013-02-18 21:36:00,46.3,43.0,29.54,South,175,5.0,10.0,88,0.02,,---,0.11,VWS V14.00,2013-02-19 02:36:00,
2013-02-18 21:38:00,46.2,42.8,29.54,South,180,4.0,10.0,88,0.02,,---,0.11,VWS V14.00,2013-02-19 02:38:00,
2013-02-18 21:39:00,46.1,42.8,29.53,South,190,3.0,10.0,88,0.02,,---,0.11,VWS V14.00,2013-02-19 02:39:00,
2013-02-18 21:42:00,46.0,42.7,29.53,SSE,162,6.0,10.0,88,0.03,,---,0.12,VWS V14.00,2013-02-19 02:42:00,
2013-02-18 21:45:00,46.0,42.7,29.53,South,178,7.0,14.0,88,0.03,,---,0.12,VWS V14.00,2013-02-19 02:45:00,
2013-02-18 21:46:00,46.0,42.7,29.53,SSE,161,9.0,14.0,88,0.03,,---,0.12,VWS V14.00,2013-02-19 02:46:00,
2013-02-18 21:48:00,46.0,42.7,29.53,SSW,212,2.0,14.0,88,0.03,,---,0.12,VWS V14.00,2013-02-19 02:48:00,
2013-02-18 21:50:00,46.0,42.7,29.53,SSW,194,7.0,14.0,88,0.03,,---,0.12,VWS V14.00,2013-02-19 02:50:00,
2013-02-18 21:51:00,46.0,42.7,29.53,SSW,192,11.0,14.0,88,0.03,,---,0.12,VWS V14.00,2013-02-19 02:51:00,
2013-02-18 21:53:00,46.0,43.8,29.53,South,178,5.0,14.0,92,0.03,,---,0.12,VWS V14.00,2013-02-19 02:53:00,
2013-02-18 21:56:00,46.1,42.8,29.53,SSW,196,9.0,14.0,88,0.03,,---,0.12,VWS V14.00,2013-02-19 02:56:00,
2013-02-18 21:59:00,46.2,42.8,29.52,SSW,192,4.0,10.0,88,0.03,,---,0.12,VWS V14.00,2013-02-19 02:59:00,
2013-02-18 22:00:00,46.2,42.8,29.52,SSW,195,3.0,10.0,88,0.03,,---,0.12,VWS V14.00,2013-02-19 03:00:00,
2013-02-18 22:01:00,46.2,42.8,29.52,SSW,201,10.0,15.0,88,0.03,,---,0.12,VWS V14.00,2013-02-19 03:01:00,
2013-02-18 22:05:00,46.2,42.8,29.52,South,173,4.0,24.0,88,0.03,,---,0.12,VWS V14.00,2013-02-19 03:05:00,
2013-02-18 22:07:00,46.2,42.8,29.52,SSE,168,2.0,24.0,88,0.03,,---,0.12,VWS V14.00,2013-02-19 03:07:00,
2013-02-18 22:10:00,46.3,42.7,29.52,South,169,3.0,24.0,87,0.03,,---,0.12,VWS V14.00,2013-02-19 03:10:00,
2013-02-18 22:13:00,46.2,42.5,29.51,SSW,206,3.0,24.0,87,0.03,,---,0.12,VWS V14.00,2013-02-19 03:13:00,
2013-02-18 22:18:00,46.3,42.7,29.51,SSE,167,5.0,24.0,87,0.04,,---,0.13,VWS V14.00,2013-02-19 03:18:00,
2013-02-18 22:19:00,46.2,42.5,29.50,SSE,155,9.0,24.0,87,0.04,,---,0.13,VWS V14.00,2013-02-19 03:19:00,
2013-02-18 22:23:00,46.2,42.5,29.50,SW,214,5.0,24.0,87,0.04,,---,0.13,VWS V14.00,2013-02-19 03:23:00,
2013-02-18 22:24:00,46.2,42.5,29.50,South,169,6.0,24.0,87,0.04,,---,0.13,VWS V14.00,2013-02-19 03:24:00,
2013-02-18 22:29:00,46.1,42.8,29.50,SSW,196,7.0,12.0,88,0.02,,---,0.13,VWS V14.00,2013-02-19 03:29:00,
2013-02-18 22:31:00,46.1,42.8,29.50,SSW,209,7.0,12.0,88,0.02,,---,0.13,VWS V14.00,2013-02-19 03:31:00,
2013-02-18 22:33:00,46.0,43.8,29.50,SSW,199,7.0,12.0,92,0.02,,---,0.13,VWS V14.00,2013-02-19 03:33:00,
2013-02-18 22:34:00,46.0,42.7,29.50,SSW,213,16.0,16.0,88,0.02,,---,0.13,VWS V14.00,2013-02-19 03:34:00,
2013-02-18 22:36:00,45.9,42.5,29.49,SSE,164,6.0,16.0,88,0.03,,---,0.14,VWS V14.00,2013-02-19 03:36:00,
2013-02-18 22:38:00,45.9,42.8,29.49,SSE,153,10.0,16.0,89,0.03,,---,0.14,VWS V14.00,2013-02-19 03:38:00,
2013-02-18 22:41:00,45.8,42.8,29.49,South,172,7.0,16.0,89,0.04,,---,0.15,VWS V14.00,2013-02-19 03:41:00,
2013-02-18 22:42:00,45.7,42.7,29.49,SSE,153,9.0,16.0,89,0.04,,---,0.15,VWS V14.00,2013-02-19 03:42:00,
2013-02-18 22:43:00,45.7,42.7,29.48,SSW,195,11.0,20.0,89,0.04,,---,0.15,VWS V14.00,2013-02-19 03:43:00,
2013-02-18 22:46:00,45.8,42.8,29.48,South,180,10.0,20.0,89,0.05,,---,0.16,VWS V14.00,2013-02-19 03:46:00,
2013-02-18 22:48:00,45.6,42.8,29.48,South,184,6.0,20.0,90,0.05,,---,0.16,VWS V14.00,2013-02-19 03:48:00,
2013-02-18 22:50:00,45.6,42.8,29.47,SSW,198,3.0,20.0,90,0.06,,---,0.17,VWS V14.00,2013-02-19 03:50:00,
2013-02-18 22:52:00,45.6,42.8,29.48,South,182,7.0,20.0,90,0.06,,---,0.17,VWS V14.00,2013-02-19 03:52:00,
2013-02-18 22:54:00,45.5,42.7,29.47,SW,217,10.0,20.0,90,0.06,,---,0.17,VWS V14.00,2013-02-19 03:54:00,
2013-02-18 22:56:00,45.4,42.6,29.47,SSW,194,1.0,20.0,90,0.06,,---,0.17,VWS V14.00,2013-02-19 03:56:00,
2013-02-18 22:57:00,45.4,42.6,29.47,SSE,151,11.0,20.0,90,0.06,,---,0.17,VWS V14.00,2013-02-19 03:57:00,
2013-02-18 23:00:00,45.4,42.9,29.47,SSE,152,5.0,16.0,91,0.05,,---,0.17,VWS V14.00,2013-02-19 04:00:00,
2013-02-18 23:02:00,45.4,42.9,29.47,South,173,6.0,16.0,91,0.05,,---,0.17,VWS V14.00,2013-02-19 04:02:00,
2013-02-18 23:03:00,45.4,42.9,29.47,SSW,196,3.0,16.0,91,0.05,,---,0.17,VWS V14.00,2013-02-19 04:03:00,
2013-02-18 23:05:00,45.4,42.9,29.46,South,180,0.0,17.0,91,0.05,,---,0.17,VWS V14.00,2013-02-19 04:05:00,
2013-02-18 23:08:00,45.5,43.0,29.46,SSW,209,9.0,17.0,91,0.06,,---,0.18,VWS V14.00,2013-02-19 04:08:00,
2013-02-18 23:10:00,45.5,43.0,29.46,SSE,168,6.0,17.0,91,0.06,,---,0.18,VWS V14.00,2013-02-19 04:10:00,
2013-02-18 23:12:00,45.6,42.8,29.46,SSW,194,10.0,17.0,90,0.06,,---,0.18,VWS V14.00,2013-02-19 04:12:00,
2013-02-18 23:13:00,45.7,42.9,29.46,South,169,6.0,17.0,90,0.06,,---,0.18,VWS V14.00,2013-02-19 04:13:00,
2013-02-18 23:18:00,45.7,42.9,29.45,SSW,198,4.0,19.0,90,0.06,,---,0.18,VWS V14.00,2013-02-19 04:18:00,
2013-02-18 23:19:00,45.7,42.9,29.45,SSE,168,17.0,19.0,90,0.06,,---,0.18,VWS V14.00,2013-02-19 04:19:00,
2013-02-18 23:24:00,45.6,42.8,29.45,SSE,157,5.0,19.0,90,0.06,,---,0.18,VWS V14.00,2013-02-19 04:24:00,
2013-02-18 23:29:00,45.5,42.7,29.44,South,182,9.0,10.0,90,0.06,,---,0.19,VWS V14.00,2013-02-19 04:29:00,
2013-02-18 23:31:00,45.6,42.8,29.44,South,176,5.0,17.0,90,0.06,,---,0.19,VWS V14.00,2013-02-19 04:31:00,
2013-02-18 23:33:00,45.5,42.7,29.44,South,174,9.0,17.0,90,0.06,,---,0.19,VWS V14.00,2013-02-19 04:33:00,
2013-02-18 23:34:00,45.5,42.7,29.44,South,174,13.0,17.0,90,0.06,,---,0.19,VWS V14.00,2013-02-19 04:34:00,
2013-02-18 23:36:00,45.6,42.8,29.44,SSW,194,9.0,18.0,90,0.06,,---,0.19,VWS V14.00,2013-02-19 04:36:00,
2013-02-18 23:38:00,45.6,42.8,29.44,SSE,167,9.0,18.0,90,0.06,,---,0.19,VWS V14.00,2013-02-19 04:38:00,
2013-02-18 23:41:00,45.5,42.7,29.44,SSW,195,3.0,18.0,90,0.06,,---,0.19,VWS V14.00,2013-02-19 04:41:00,
2013-02-18 23:43:00,45.5,42.7,29.44,South,178,9.0,18.0,90,0.06,,---,0.19,VWS V14.00,2013-02-19 04:43:00,
2013-02-18 23:47:00,45.5,42.7,29.43,SSW,198,11.0,18.0,90,0.06,,---,0.19,VWS V14.00,2013-02-19 04:47:00,
2013-02-18 23:48:00,45.4,42.9,29.43,South,182,11.0,18.0,91,0.06,,---,0.19,VWS V14.00,2013-02-19 04:48:00,
2013-02-18 23:49:00,45.5,43.0,29.43,South,172,15.0,18.0,91,0.06,,---,0.19,VWS V14.00,2013-02-19 04:49:00,
2013-02-18 23:54:00,45.5,43.0,29.43,South,175,11.0,18.0,91,0.07,,---,0.20,VWS V14.00,2013-02-19 04:54:00,
2013-02-18 23:55:00,45.4,42.9,29.43,SSW,193,1.0,18.0,91,0.07,,---,0.20,VWS V14.00,2013-02-19 04:55:00,
2013-02-18 23:59:00,45.4,42.9,29.42,SSE,153,10.0,13.0,91,0.03,,---,0.00,VWS V14.00,2013-02-19 04:59:00,